ogmsband Games - Total: 43131
Rank Song Name Score PGAMB Combo Time
94 Hajnal 2 [SR] 657,060 589 - 2 - 0 - 24 - 0 340 2022-09-06 16:36:57
163 Break [SR] 297,645 209 - 3 - 0 - 23 - 0 189 2022-09-06 16:35:10
724 Amber Shores 517,120 447 - 17 - 1 - 24 - 1 274 2022-09-06 16:34:34
1,274 Resurrection Spell 1,308,750 853 - 10 - 0 - 23 - 1 844 2022-09-06 16:33:12
3,448 Clockwork [Breakbeat Heartbeat] 156,845 106 - 0 - 1 - 21 - 0 105 2022-09-06 16:29:36
796 At The Speed Of Light 754,660 484 - 4 - 0 - 2 - 1 488 2022-09-06 16:29:10
347 Christmix 2014 1,063,005 760 - 3 - 0 - 22 - 0 651 2022-09-06 16:28:09
1,363 Oops 1,118,340 726 - 2 - 0 - 21 - 0 725 2022-09-06 15:59:48
377 FREEDOM DiVE 669,390 436 - 4 - 0 - 21 - 0 435 2022-09-06 15:58:00
533 Casino Fire Kotomi-chan 583,665 373 - 11 - 0 - 21 - 0 382 2022-09-06 15:57:11
38 Time Signature 267,810 234 - 20 - 0 - 27 - 1 142 2022-09-06 15:56:24
204 Igneous Rock (3-1 Hot Remix) 2,158,600 1,395 - 2 - 0 - 20 - 0 1,397 2022-09-06 15:16:37
90 Blooddrunk v2 859,975 558 - 1 - 0 - 20 - 0 559 2022-09-06 15:13:10
2,096 Yaunryu ~Yamikaze~ 2,249,675 1,448 - 9 - 0 - 20 - 0 1,457 2022-09-06 15:11:06
5,943 Reality 950,380 613 - 6 - 2 - 21 - 1 618 2022-09-06 15:08:19
958 My So-Called Life 329,665 218 - 1 - 0 - 21 - 0 216 2022-09-06 15:06:53
200 Propane 989,165 685 - 7 - 0 - 21 - 0 617 2022-09-06 15:02:28
971 Downtemperature 1,072,015 693 - 5 - 0 - 21 - 0 696 2022-09-06 15:01:02
67 Kababies 2,149,840 1,514 - 6 - 0 - 21 - 0 1,322 2022-09-06 14:58:57
1,113 Downtemperature 801,250 516 - 6 - 0 - 20 - 0 522 2022-09-06 14:56:04
328 Cycles 720,065 618 - 2 - 1 - 24 - 0 387 2022-09-06 14:54:51
386 Cycles 241,365 231 - 3 - 0 - 21 - 0 120 2022-09-06 13:44:52
684 Poison AND/OR Affection 165,400 109 - 0 - 0 - 5 - 0 107 2022-09-06 13:42:59
1,018 Le carnaval des animaux, Movement no. 14 ''Finale" 552,100 392 - 46 - 0 - 23 - 1 331 2022-09-06 13:41:49
5,624 Grand Galop Chromatique 1,431,990 1,443 - 32 - 0 - 24 - 1 637 2022-09-06 12:29:43
1,530 G air 1,129,560 744 - 8 - 0 - 22 - 1 725 2022-09-06 12:27:18
194 Birthright (Blue Stahli Remix) 1,752,400 1,128 - 8 - 0 - 20 - 0 1,136 2022-09-06 12:24:17
356 Salieri's Laughter 3,495,415 2,252 - 8 - 3 - 21 - 2 2,261 2022-09-06 12:07:12
905 Guitars Still Suck 1,008,705 650 - 11 - 0 - 22 - 0 655 2022-09-06 12:03:10
1,063 Guitars Still Suck 280,520 175 - 8 - 0 - 3 - 0 183 2022-09-06 12:01:56
96 Touhou Judgment in the Sixtieth Year ~ Fate of Sixty Years [FC] [PB] 2,354,330 1,514 - 6 - 0 - 0 - 1 1,520 2022-09-06 12:01:09
211 Touhou Judgment in the Sixtieth Year ~ Fate of Sixty Years 387,840 256 - 2 - 0 - 21 - 0 253 2022-09-06 11:58:17
217 Prisoner 1,231,700 1,155 - 16 - 0 - 3 - 1 593 2022-09-06 11:41:10
1,525 8bit Adventurer 448,250 436 - 5 - 1 - 16 - 1 212 2022-09-06 11:37:04
287 Gentleman (Areia Remix) 892,820 758 - 6 - 2 - 22 - 1 481 2022-09-06 11:36:00
1,207 Fried Eggs In My Ear 424,470 279 - 2 - 0 - 21 - 1 277 2022-09-06 11:34:20
140 Chronograph [FC] [PB] 1,901,300 1,225 - 2 - 0 - 0 - 0 1,227 2022-09-06 11:31:54
64 Wooden Sword [FC] [PB] 2,177,805 1,396 - 11 - 0 - 0 - 1 1,407 2022-09-06 11:26:29
1,075 Downtemperature 891,040 577 - 8 - 0 - 21 - 0 578 2022-09-06 11:24:20
142 Wooden Sword 1,867,770 1,199 - 14 - 0 - 21 - 1 1,211 2022-09-05 22:38:46
995 Buzzards 876,130 584 - 10 - 0 - 22 - 0 559 2022-09-05 22:34:47
1,027 waltz in d-flat op. 64-1 (panic station mix) 596,655 498 - 7 - 0 - 7 - 0 323 2022-09-05 22:02:48
66 Ants Of The Sky 1,640,795 1,310 - 15 - 2 - 6 - 4 918 2022-09-05 22:00:44
1,456 Since 1983 1,119,410 718 - 10 - 0 - 20 - 2 728 2022-09-05 21:58:20
1,671 Double Helix [SR] 473,215 424 - 9 - 0 - 24 - 1 245 2022-09-05 21:56:53
150 Excite Bike [Heavy] [FC] 162,730 105 - 0 - 0 - 0 - 1 105 2022-09-05 21:55:22
180 Excite Bike [Heavy] 132,615 103 - 1 - 0 - 1 - 0 76 2022-09-05 21:55:01
272 Excite Bike [Heavy] 116,280 79 - 0 - 0 - 7 - 0 75 2022-09-05 21:54:36
151 Excite Bike [Heavy] [FC] 162,475 104 - 1 - 0 - 0 - 0 105 2022-09-05 21:54:27
118 Bedtime Story 1,734,075 1,117 - 7 - 0 - 20 - 0 1,124 2022-09-05 21:50:12
3,822 Night and Day 532,435 359 - 3 - 0 - 22 - 1 341 2022-09-05 21:44:51
80 Live at the Sandopolis [PB] 1,696,920 1,377 - 4 - 0 - 21 - 1 945 2022-09-05 21:42:29
97 Live at the Sandopolis 327,350 305 - 2 - 0 - 3 - 1 160 2022-09-05 21:38:30
1,097 Plasmatextor 2,205,495 1,421 - 9 - 0 - 21 - 1 1,428 2022-09-05 21:36:42
932 Suicide Pact 987,665 633 - 11 - 0 - 21 - 0 643 2022-09-05 21:30:38
659 YATA 1,454,420 1,037 - 8 - 0 - 23 - 0 889 2022-09-05 17:20:36
3,924 Hajnal 2,403,410 1,590 - 10 - 0 - 22 - 1 1,533 2022-09-05 17:18:27
979 Mellann 676,800 439 - 2 - 0 - 20 - 0 441 2022-09-05 17:13:58
346 Mongoloid Alien 946,500 613 - 2 - 0 - 20 - 0 615 2022-09-05 17:12:50
61 Kababies 1,993,510 2,108 - 18 - 0 - 22 - 1 836 2022-09-05 15:41:22
1,096 Overdrive [Cranky] 149,970 98 - 2 - 0 - 8 - 0 98 2022-09-05 15:37:31
653 Over The Ocean 1,381,325 1,206 - 13 - 0 - 21 - 2 721 2022-09-05 15:37:06
1,025 Blue-Violet [PB] 1,296,940 835 - 8 - 0 - 21 - 0 842 2022-09-05 15:35:03
1,582 Blue-Violet 236,350 160 - 0 - 0 - 15 - 0 153 2022-09-05 15:33:17
1,472 Pussy Pump 1,034,835 956 - 3 - 0 - 25 - 2 516 2022-09-05 15:31:53
1,547 Schur's Theorem 648,710 601 - 8 - 2 - 23 - 1 323 2022-09-05 15:30:05
118 Anywhere But Here 863,765 559 - 3 - 0 - 21 - 0 562 2022-09-05 15:28:09
67 Chapter II (Then) 1,435,695 1,120 - 3 - 0 - 23 - 0 826 2022-09-05 15:27:00
89 Micro Media Broth [SR] 677,195 437 - 5 - 0 - 21 - 1 442 2022-09-05 15:24:17
249 Exam Cram [Heavy] 1,045,425 1,144 - 5 - 0 - 23 - 1 422 2022-09-05 15:22:55
2,192 Gotta Catch 'Em All 1,266,920 818 - 9 - 1 - 21 - 0 821 2022-09-05 15:20:58
707 Final Boss 1,169,695 839 - 5 - 0 - 23 - 0 714 2022-09-05 15:19:22
117 Bedtime Story 1,732,570 1,119 - 6 - 0 - 21 - 1 1,122 2022-09-05 15:17:40
278 Curry Dayo! [SR] 248,415 162 - 3 - 0 - 21 - 0 165 2022-09-05 15:08:24
279 Autumn Insomnia Session 2,229,230 1,449 - 6 - 0 - 1 - 3 1,431 2022-09-02 14:20:20
364 LIGHT OF HARMONY 1,218,805 788 - 2 - 1 - 20 - 0 791 2022-09-02 14:11:14
629 Danse de Romani 785,755 585 - 3 - 0 - 22 - 0 470 2022-09-02 14:09:34
1,213 Buzzards 316,380 206 - 6 - 0 - 21 - 3 208 2022-09-02 13:45:16
1,470 Felix^3 150,900 96 - 6 - 0 - 5 - 0 98 2022-09-02 13:44:22
41 Pressure Torture [FC] [PB] 2,312,775 1,488 - 5 - 0 - 0 - 0 1,493 2022-09-02 13:43:42
5,914 going on -spring wind- 434,140 280 - 6 - 0 - 21 - 0 285 2022-09-02 13:41:22
7,881 Epidermis 518,215 338 - 3 - 0 - 21 - 0 338 2022-09-02 13:40:22
1,374 The Replicator 766,330 496 - 4 - 0 - 21 - 3 499 2022-09-02 13:39:01
565 hatsu miku time 794,060 517 - 2 - 0 - 22 - 1 516 2022-09-02 13:37:34
583 Caelumize [Heavy] 1,030,970 795 - 6 - 0 - 3 - 0 593 2022-09-02 13:35:54
882 cheerful forest 408,375 265 - 3 - 0 - 20 - 0 268 2022-09-01 21:40:40
951 Mellann 812,890 523 - 10 - 0 - 21 - 0 529 2022-09-01 21:37:54
960 YATA 932,290 609 - 8 - 0 - 22 - 2 602 2022-09-01 21:35:59
87 Wooden Sword 1,825,875 1,380 - 21 - 0 - 6 - 2 1,063 2022-09-01 17:10:21
1,202 Lawn Wake IX 1,085,505 708 - 7 - 0 - 22 - 0 701 2022-09-01 17:00:32
916 OTAKU SPEEDVIBE [Oni] 884,840 570 - 8 - 0 - 22 - 2 576 2022-09-01 16:55:14
76 Ants Of The Sky 351,295 311 - 5 - 0 - 23 - 0 186 2022-09-01 16:54:08
1,327 Felix^3 387,420 250 - 5 - 1 - 21 - 0 255 2022-09-01 16:53:22
983 Suicide Pact 824,270 532 - 8 - 0 - 21 - 1 536 2022-09-01 16:52:09
767 Grad Erlija 771,350 500 - 2 - 0 - 20 - 0 502 2022-09-01 16:37:03
420 Does the Microwave Oven Dream of Electric Sheep 1,276,650 826 - 2 - 0 - 20 - 0 828 2022-09-01 16:31:50
235 Back 2 Ze Core 1,001,465 648 - 7 - 0 - 22 - 2 650 2022-09-01 16:25:27
156 Wooden Sword 733,990 488 - 4 - 0 - 21 - 0 471 2022-09-01 16:23:41
3,103 October 1,431,625 914 - 16 - 1 - 21 - 1 931 2022-08-31 19:01:06
108 Pressure Torture [PB] 1,203,315 941 - 1 - 0 - 21 - 0 692 2022-08-31 18:57:09
342 Mellann 1,572,990 1,118 - 16 - 0 - 1 - 0 954 2022-08-31 18:52:14
219 Cyclone Joker 789,125 511 - 2 - 1 - 21 - 1 514 2022-08-31 15:06:42
238 Cyclone Joker 310,450 201 - 4 - 0 - 20 - 0 205 2022-08-31 15:02:41
749 0x69 791,435 559 - 3 - 0 - 22 - 1 490 2022-08-31 15:02:07
96 W-Inda (F-Rz Edit) 547,765 478 - 6 - 1 - 22 - 1 290 2022-08-31 14:40:53
655 Breaka Railway 462,515 445 - 19 - 0 - 24 - 1 220 2022-08-31 14:39:50
157 Wooden Sword 640,105 420 - 7 - 0 - 22 - 0 414 2022-08-31 14:38:45
73 Kababies 1,361,625 880 - 3 - 0 - 20 - 0 883 2022-08-31 14:34:55
872 Shatterscape (Bexarametric Remix) 957,250 615 - 8 - 0 - 20 - 0 623 2022-08-31 14:30:06
163 Personal Discourse 545,975 410 - 5 - 0 - 6 - 2 321 2022-08-31 14:28:46
36 Redraw the Colorless World [FC] [PB] 2,274,300 1,464 - 4 - 0 - 0 - 0 1,468 2022-08-31 14:26:37
1,147 Een Lijden 116,940 82 - 4 - 0 - 4 - 1 72 2022-08-31 14:23:33
875 Altale [Heavy] 877,540 566 - 10 - 0 - 21 - 0 570 2022-08-31 14:22:30
466 Poison AND/OR Affection 1,429,375 925 - 4 - 1 - 21 - 1 926 2022-08-31 14:20:59
721 Poison AND/OR Affection 41,780 27 - 10 - 0 - 22 - 0 31 2022-08-31 14:19:19
313 Reluctantly Accepting Temporary Overexhaustion v2 [SR] 346,695 222 - 15 - 0 - 21 - 1 227 2022-08-31 14:18:30
665 Reluctantly Accepting Temporary Overexhaustion [PB] 864,710 1,274 - 216 - 26 - 84 - 39 130 2022-08-31 12:46:07
7,499 Reluctantly Accepting Temporary Overexhaustion [PB] 631,400 820 - 120 - 18 - 75 - 17 170 2022-08-31 12:43:59
31 Time Signature [SR] 285,310 240 - 29 - 1 - 28 - 2 154 2022-08-31 12:42:00
940 Chik Habit 1,107,255 1,067 - 37 - 0 - 25 - 1 518 2022-08-31 12:41:06
1,098 Chik Habit 80,945 52 - 1 - 0 - 3 - 0 53 2022-08-31 12:38:51
1,105 Chik Habit 24,215 15 - 1 - 0 - 1 - 0 16 2022-08-31 12:38:27
6,027 Piano Concerto 1 'ANTI-ARES' (For Kirby) 294,105 227 - 3 - 0 - 21 - 3 175 2022-08-31 12:38:10
217 Sunset Sky Garden 1,620,100 1,041 - 10 - 0 - 20 - 0 1,051 2022-08-31 12:34:15
338 Giselle [PB] 441,245 498 - 10 - 1 - 24 - 1 172 2022-08-31 12:31:36
1,914 MANIERA 375,160 382 - 22 - 0 - 29 - 0 168 2022-08-31 12:30:33
4,940 La Campanella 730,115 475 - 5 - 0 - 21 - 0 474 2022-08-31 12:29:43
14,039 Piano Etude (Demon Fire) [Heavy] 1,065,720 880 - 22 - 0 - 1 - 1 576 2022-08-31 12:27:56
29,537 Piano Etude (Demon Fire) [Heavy] 141,560 96 - 2 - 0 - 9 - 0 91 2022-08-31 12:26:14
219 Birthright (Blue Stahli Remix) 1,306,185 842 - 7 - 0 - 22 - 1 848 2022-08-31 12:24:24
73 Chapter II (Then) 451,750 297 - 2 - 0 - 23 - 1 295 2022-08-31 12:20:10
75 Chapter II (Then) 154,855 125 - 1 - 0 - 7 - 0 88 2022-08-31 12:19:13
50 Chapter II (Then) [PB] 2,318,570 1,490 - 11 - 1 - 19 - 6 1,502 2022-08-30 22:45:57
7,658 B.B. - Revenge - 340,065 298 - 11 - 0 - 6 - 0 175 2022-08-30 22:42:53
2,218 Pussy Pump 859,255 571 - 4 - 1 - 3 - 1 545 2022-08-30 22:41:52
350 Sutekina Hakaba de Kurashimashou [Alternative Ver.] 1,038,110 667 - 3 - 1 - 2 - 0 671 2022-08-30 22:40:30
418 Sutekina Hakaba de Kurashimashou [Alternative Ver.] 571,170 371 - 6 - 0 - 21 - 1 372 2022-08-30 22:39:20
901 Jammin' 551,765 356 - 9 - 0 - 21 - 0 360 2022-08-30 22:26:57
1,124 Jammin' 345 2 - 1 - 0 - 13 - 0 3 2022-08-30 22:25:48
66 Kababies 2,325,140 1,497 - 12 - 0 - 21 - 0 1,505 2022-08-30 22:22:19
963 YATA 927,175 600 - 6 - 1 - 21 - 1 602 2022-08-30 22:19:29
796 Happy Meal 1,579,660 1,010 - 16 - 0 - 20 - 2 1,026 2022-08-30 22:16:09
88 Rakatakatikatong [FC] 1,356,030 865 - 12 - 0 - 0 - 1 877 2022-08-30 22:13:58
1,992 Intersect Thunderbolt 409,320 260 - 8 - 0 - 6 - 1 266 2022-08-30 22:11:56
353 Dance and Zeal 1,809,370 1,229 - 10 - 0 - 1 - 1 1,131 2022-08-30 22:10:55
114 Bedtime Story 1,591,690 1,023 - 13 - 1 - 21 - 4 1,032 2022-08-30 22:08:00
570 Syncopatriarch 1,591,290 1,016 - 17 - 1 - 20 - 2 1,034 2022-08-30 21:59:16
925 Twinkle Of The Stars 1,371,755 881 - 11 - 0 - 22 - 0 891 2022-08-30 21:56:58
141 Suicide Pact [FC] 1,769,725 1,136 - 7 - 0 - 0 - 0 1,143 2022-08-30 17:37:56
1,126 Colibri 1,206,005 774 - 7 - 0 - 2 - 0 779 2022-08-30 17:35:03
1,028 waltz in d-flat op. 64-1 (panic station mix) 573,915 492 - 3 - 0 - 21 - 0 309 2022-08-30 17:32:22
1,163 waltz in d-flat op. 64-1 (panic station mix) 326,115 215 - 4 - 1 - 17 - 1 212 2022-08-30 17:31:25
750 Staring at my Spaceship 1,016,705 754 - 3 - 0 - 22 - 0 608 2022-08-30 17:30:38
486 dr1 845,325 668 - 11 - 0 - 10 - 0 478 2022-08-30 17:28:52
1,243 ==Planet KARMA== 781,385 511 - 4 - 1 - 22 - 0 506 2022-08-30 17:27:37
721 cheerful forest 1,214,225 836 - 7 - 0 - 8 - 1 755 2022-08-30 17:26:14
1,469 SOLROS 334,215 219 - 1 - 0 - 21 - 0 220 2022-08-30 17:24:33
150 Wooden Sword 1,276,930 840 - 10 - 0 - 22 - 0 819 2022-08-30 17:23:57
148 Air Nad Adrian 737,440 622 - 8 - 0 - 22 - 2 400 2022-08-30 17:21:24
105 W-Inda (F-Rz Edit) 323,505 269 - 5 - 0 - 22 - 0 181 2022-08-30 17:19:44
95 W-Inda (F-Rz Edit) 713,135 510 - 9 - 0 - 22 - 1 437 2022-08-30 14:18:53
104 W-Inda (F-Rz Edit) 327,755 303 - 7 - 0 - 22 - 0 166 2022-08-30 14:17:55
93 Masodik Galamb 1,396,865 1,327 - 9 - 0 - 24 - 1 672 2022-08-30 14:15:24
65 Ants Of The Sky 2,784,440 2,060 - 43 - 1 - 24 - 0 1,647 2022-08-30 14:12:31
1,881 Electric Butterfly 353,520 231 - 1 - 1 - 6 - 0 228 2022-08-30 14:08:47
74 CENSORED!! [PB] 1,087,555 721 - 3 - 0 - 22 - 0 697 2022-08-30 14:08:07
1,453 SHI*O*KA*RA 566,670 374 - 4 - 0 - 23 - 0 367 2022-08-30 14:06:13
2,032 I'm Sick of Uprock 1,076,940 697 - 4 - 0 - 21 - 0 699 2022-08-30 14:02:32
6,254 Perfect Cherry Storm 372,415 238 - 3 - 0 - 1 - 0 241 2022-08-29 20:16:24
1,479 Resurrection Spell 534,095 344 - 5 - 0 - 8 - 0 346 2022-08-29 20:15:32
2,673 Crowdpleaser v2 279,415 182 - 3 - 0 - 21 - 0 185 2022-08-29 20:11:39
501 Landscape 335,965 224 - 1 - 0 - 21 - 0 219 2022-08-29 20:10:34
702 Landscape 3,100 5 - 0 - 0 - 15 - 0 5 2022-08-29 20:10:02
1,409 Nous 728,070 475 - 1 - 1 - 21 - 0 473 2022-08-27 13:42:37
1,852 Nous 204,600 132 - 0 - 0 - 0 - 0 132 2022-08-27 13:41:34
1,798 Futsuu No Uta 479,985 306 - 7 - 0 - 4 - 0 311 2022-08-27 13:40:30
5,060 He's a Pirate - F-777 ReMiX 430,145 274 - 5 - 0 - 3 - 0 279 2022-08-27 13:39:24
365 He's a Pirate - F-777 ReMiX [FC] 1,497,475 962 - 5 - 0 - 0 - 0 967 2022-08-27 13:38:35
1,827 Dance and Zeal 544,020 345 - 8 - 0 - 3 - 0 353 2022-08-27 13:35:57
972 Guitars Still Suck 612,840 391 - 8 - 0 - 11 - 0 399 2022-08-27 13:34:50
1,063 Guitars Still Suck 278,320 167 - 16 - 0 - 3 - 0 183 2022-08-27 13:34:04
799 Guitars Still Suck 1,374,990 882 - 16 - 0 - 21 - 0 892 2022-08-27 13:33:14
155 Savior 957,385 694 - 7 - 0 - 4 - 0 575 2022-08-27 13:31:22
84 Blooddrunk v2 1,258,215 819 - 1 - 0 - 21 - 0 814 2022-08-27 13:29:39
2,821 The Divine Suicide of K 3,564,960 2,312 - 10 - 0 - 27 - 1 2,299 2022-08-27 13:28:05
681 Would You Be Impressed? 956,865 620 - 5 - 0 - 21 - 0 621 2022-08-27 13:23:12
1,927 Heavenly Spores 873,525 776 - 1 - 0 - 5 - 0 448 2022-08-26 15:32:55
279 THE BADDEST 1,292,775 829 - 11 - 0 - 20 - 0 840 2022-08-26 15:31:25
614 ETERNAL DRAIN 2,018,430 1,294 - 10 - 0 - 0 - 1 1,304 2022-08-26 15:28:28
2,507 Destination Of The Heart 51,150 37 - 0 - 0 - 20 - 0 37 2022-08-26 15:23:42
2,507 Destination Of The Heart 51,150 37 - 0 - 0 - 20 - 0 37 2022-08-26 15:23:14
2,127 ETERNAL DRAIN 1,697,780 1,093 - 8 - 0 - 21 - 3 1,101 2022-08-26 13:57:23
919 Yellow Smile 1,042,190 669 - 10 - 0 - 21 - 0 678 2022-08-26 13:54:27
152 GLAZ [PB] 1,647,980 1,059 - 10 - 0 - 20 - 1 1,069 2022-08-26 13:53:08
175 GLAZ 192,755 130 - 3 - 0 - 21 - 3 127 2022-08-26 13:51:04
172 GLAZ 400,760 262 - 2 - 0 - 19 - 0 262 2022-08-25 21:09:07
362 Gentleman (Areia Remix) 664,510 434 - 6 - 0 - 22 - 1 431 2022-08-25 17:26:30
174 In The Summer (Canblaster Remix) 414,690 268 - 8 - 0 - 19 - 1 271 2022-08-25 17:24:54
929 Suicide Pact 705,510 637 - 7 - 1 - 22 - 0 360 2022-08-25 17:22:22
1,104 Suicide Pact 427,965 283 - 3 - 0 - 21 - 0 278 2022-08-25 17:21:19
1,115 Suicide Pact 424,720 277 - 3 - 1 - 21 - 0 278 2022-08-25 17:20:44
1,173 Plasmatextor 1,505,520 973 - 3 - 1 - 21 - 0 976 2022-08-25 17:19:12
801 Staring at my Spaceship 524,625 340 - 3 - 0 - 20 - 0 343 2022-08-25 17:14:10
2,359 Gotta Catch 'Em All 1,012,195 654 - 11 - 0 - 21 - 1 656 2022-08-25 17:12:34
3,244 Piano Concerto 1 'ANTI-ARES' (For Kirby) 1,841,005 1,186 - 7 - 0 - 20 - 1 1,193 2022-08-25 16:57:46
6,073 Piano Concerto 1 'ANTI-ARES' (For Kirby) 325,570 222 - 0 - 0 - 21 - 1 210 2022-08-25 16:55:27
986 Guitars Still Suck 526,655 343 - 3 - 0 - 22 - 0 344 2022-08-25 16:54:10
1,705 Dance and Zeal 811,855 525 - 7 - 0 - 22 - 0 528 2022-08-25 16:52:45
474 Sutekina Hakaba de Kurashimashou [Alternative Ver.] 330,150 214 - 0 - 0 - 5 - 0 214 2022-08-25 16:51:29
447 Sutekina Hakaba de Kurashimashou [Alternative Ver.] 421,775 272 - 5 - 0 - 20 - 0 277 2022-08-25 16:50:55
2,792 0 (piano version) 1,596,300 1,024 - 12 - 0 - 20 - 0 1,036 2022-08-25 16:49:10
321 Smoked Turkey Rag 575,740 374 - 2 - 0 - 21 - 0 376 2022-08-25 16:46:06
973 waltz in d-flat op. 64-1 (panic station mix) 1,148,570 736 - 12 - 0 - 21 - 1 747 2022-08-24 20:19:08
201 Highway Highway DESTINY 6,265 10 - 1 - 0 - 21 - 0 7 2022-08-24 20:15:55
1,468 Death Piano v2 658,475 428 - 1 - 0 - 20 - 0 429 2022-08-24 20:14:03
1,787 Tetris [Powerglove] 756,850 489 - 4 - 0 - 20 - 0 493 2022-08-24 20:12:32
3,984 Mario Minor 3,023,575 1,940 - 26 - 1 - 21 - 6 1,956 2022-08-24 20:11:18
1,322 can't hide your love 601,900 384 - 6 - 0 - 3 - 1 390 2022-08-24 20:07:26
1,206 Plasmatextor 1,279,630 823 - 8 - 0 - 20 - 1 831 2022-08-24 20:02:51
126 Bedtime Story 997,550 641 - 8 - 0 - 20 - 0 649 2022-08-24 19:58:59
115 Growmeter 1,244,465 881 - 5 - 0 - 24 - 1 766 2022-08-24 16:52:15
1,236 Plasmatextor 1,033,455 664 - 9 - 0 - 20 - 1 672 2022-08-24 16:49:12
3,635 Thrash 844,705 545 - 4 - 1 - 20 - 0 550 2022-08-24 16:47:04
1,129 Colibri 1,198,305 772 - 8 - 1 - 21 - 2 778 2022-08-24 16:45:49
793 Amphisbaena 482,090 309 - 7 - 1 - 22 - 1 317 2022-08-24 16:30:02
4,625 Toxiferous Dystopia 230,470 242 - 14 - 0 - 24 - 2 101 2022-08-24 16:29:09
194 E Jumpstyle 601,630 493 - 6 - 0 - 7 - 0 331 2022-08-24 16:27:46
1,101 Arianrhod 544,645 357 - 3 - 0 - 21 - 1 354 2022-08-24 16:26:41
1,319 Dreadnought [Heavy] 772,965 503 - 3 - 0 - 21 - 0 502 2022-08-24 16:25:24
412 breathe [qfeileadh] 234,495 157 - 1 - 0 - 23 - 0 155 2022-08-24 16:23:41
1,503 Autumn Insomnia Session 710,770 465 - 2 - 0 - 21 - 1 461 2022-08-23 21:37:31
948 Jack-the-Ripper 1,222,300 786 - 8 - 0 - 20 - 0 794 2022-08-23 21:35:02
903 Stepfile This 555,690 361 - 6 - 0 - 21 - 0 362 2022-08-23 21:32:20
2,061 Tageri 1,127,210 727 - 8 - 0 - 22 - 1 732 2022-08-23 21:21:40
1,996 Kono spoon, suteki desu ne 956,555 618 - 9 - 0 - 22 - 0 621 2022-08-23 21:18:21
7,442 Kirlian Changes 37,090 0 - 34 - 0 - 4 - 1 29 2022-08-23 21:15:38
7,369 Kirlian Changes 42,190 2 - 34 - 0 - 4 - 1 33 2022-08-23 21:14:12
168 YATA [FC] 1,714,475 1,102 - 5 - 0 - 0 - 0 1,107 2022-08-23 20:17:28
253 Reflective Moment 696,235 451 - 5 - 0 - 7 - 1 449 2022-08-23 20:15:12
929 Suicide Pact 991,395 641 - 5 - 0 - 21 - 1 644 2022-08-23 20:14:00
442 Epileptic Crisis [Heavy] 474,855 303 - 4 - 1 - 3 - 1 308 2022-08-23 20:12:47
5,623 Kirlian Changes 255,060 1 - 208 - 0 - 15 - 2 202 2022-08-23 20:11:42
7,749 Kirlian Changes 19,530 1 - 20 - 0 - 14 - 9 18 2022-08-23 20:09:28
5,574 Kirlian Changes 274,070 0 - 218 - 0 - 6 - 1 216 2022-08-23 20:07:10
7,596 Kirlian Changes 21,670 8 - 8 - 0 - 3 - 0 16 2022-08-23 20:05:42
7,932 Kirlian Changes 9,580 0 - 8 - 0 - 2 - 0 8 2022-08-23 20:05:14
5,713 Kirlian Changes 210,275 2 - 169 - 0 - 20 - 5 169 2022-08-23 20:04:36
1,456 Venus Fire 103,850 71 - 0 - 0 - 20 - 0 71 2022-08-23 19:53:39
2,271 Pussy Pump 844,815 550 - 3 - 0 - 21 - 0 548 2022-08-23 17:28:43
56 Szamar Madar v2 [PB] 1,457,570 938 - 8 - 0 - 21 - 1 946 2022-08-23 17:26:06
804 Staring at my Spaceship 474,025 309 - 1 - 0 - 20 - 0 310 2022-08-23 17:09:28
58 Szamar Madar v2 [SR] 783,900 507 - 2 - 0 - 8 - 1 507 2022-08-23 17:08:12
11,642 Nanairopanda 55,610 47 - 2 - 0 - 9 - 0 32 2022-08-23 17:02:00
5,552 Kirlian Changes 166,280 4 - 216 - 0 - 4 - 4 106 2022-08-23 17:00:01
7,530 Kirlian Changes 29,770 5 - 18 - 0 - 3 - 0 23 2022-08-23 16:58:34
6,986 Kirlian Changes 66,100 2 - 52 - 0 - 4 - 3 52 2022-08-23 16:57:53
5,678 Kirlian Changes 154,140 15 - 156 - 0 - 9 - 11 106 2022-08-23 16:57:29
6,353 Kirlian Changes 104,715 2 - 83 - 0 - 7 - 2 83 2022-08-23 16:55:48
52 Chapter II (Then) [PB] 1,994,435 1,285 - 7 - 0 - 20 - 2 1,292 2022-08-23 16:11:06
438 Lust for Blood 1,768,450 1,140 - 6 - 0 - 20 - 0 1,146 2022-08-23 16:07:47
1,970 Dance and Zeal 372,210 241 - 3 - 1 - 20 - 1 245 2022-08-23 16:05:22
4,383 Kirlian Changes 148,185 168 - 37 - 8 - 11 - 171 52 2022-08-23 16:04:28
5,618 Kirlian Changes 127,050 102 - 24 - 6 - 2 - 118 67 2022-08-23 16:03:07
5,556 Kirlian Changes 124,510 112 - 21 - 5 - 6 - 114 61 2022-08-23 16:01:24
4,129 Kirlian Changes 174,430 180 - 31 - 7 - 6 - 181 72 2022-08-23 16:00:26
4,375 Kirlian Changes 128,740 177 - 22 - 10 - 15 - 178 33 2022-08-23 15:58:54
5,615 Kirlian Changes 112,455 108 - 15 - 6 - 10 - 115 54 2022-08-23 15:57:32
2,115 Kirlian Changes [FC] [PB] 342,210 206 - 18 - 0 - 0 - 2 224 2022-08-23 15:56:30
8,072 Kirlian Changes 0 1 - 1 - 0 - 7 - 5 1 2022-08-23 15:55:04
8,072 Kirlian Changes 0 0 - 0 - 0 - 7 - 3 0 2022-08-23 15:54:52
5,714 Kirlian Changes 70,790 81 - 25 - 5 - 31 - 65 30 2022-08-23 15:54:42
1 Chlorophyll [AAA] [FC] 1,850,700 1,194 - 0 - 0 - 0 - 0 1,194 2022-08-23 15:47:06
1,725 Ongyilkos Vasarnap 570,105 371 - 1 - 0 - 20 - 1 372 2022-08-23 15:44:20
192 E Jumpstyle 586,935 529 - 3 - 0 - 22 - 1 302 2022-08-23 15:41:33
1,130 Aleph-0 267,470 207 - 4 - 0 - 8 - 0 155 2022-08-23 15:40:02
258 eccentric ghost channel as Poltergeist 741,650 571 - 10 - 0 - 23 - 1 432 2022-08-23 15:37:58
264 eccentric ghost channel as Poltergeist 780,140 561 - 4 - 0 - 21 - 0 477 2022-08-23 14:49:51
151 Escape [SR] 318,980 235 - 2 - 0 - 22 - 0 196 2022-08-23 14:48:48
656 Zephyros 695,960 475 - 9 - 1 - 22 - 0 439 2022-08-23 14:48:12
1,381 Calamity Fortune [PB] 1,205,325 1,130 - 5 - 0 - 21 - 2 589 2022-08-23 14:46:39
858 Funny Function 641,280 420 - 4 - 0 - 22 - 0 416 2022-08-23 14:30:59
1,020 Arianrhod 773,175 502 - 1 - 0 - 20 - 0 503 2022-08-23 14:29:08
819 Staring at my Spaceship 316,715 209 - 1 - 0 - 21 - 0 208 2022-08-23 12:07:11
107 Growmeter [PB] 1,285,180 938 - 4 - 0 - 22 - 0 775 2022-08-23 12:05:56
601 Syncopatriarch 1,268,800 818 - 5 - 1 - 21 - 1 824 2022-08-23 12:04:01
57 CENSORED!! [SR] 1,050,800 677 - 6 - 0 - 20 - 0 683 2022-08-23 11:57:50
801 Staring at my Spaceship 516,940 338 - 2 - 0 - 21 - 0 337 2022-08-22 22:50:46
207 The earth blew up v2 [PB] 1,743,100 1,122 - 8 - 0 - 20 - 0 1,130 2022-08-22 21:35:01
219 The earth blew up v2 12,710 9 - 0 - 0 - 4 - 0 9 2022-08-22 21:32:59
74 Wooden Sword [FC] [PB] 2,176,155 1,390 - 17 - 0 - 0 - 1 1,407 2022-08-22 21:30:51
352 Gentleman (Areia Remix) 860,740 557 - 4 - 2 - 22 - 0 560 2022-08-22 21:26:20
422 Gentleman (Areia Remix) 7,440 6 - 0 - 0 - 6 - 0 6 2022-08-22 21:25:19
5,639 Ketsarku Mozgalom 1,394,510 884 - 26 - 0 - 22 - 1 908 2022-08-22 21:24:55
2,768 Mephisto Waltz 1,324,045 901 - 33 - 4 - 12 - 4 823 2022-08-22 21:19:17
3,249 Holy Orders 966,595 622 - 12 - 1 - 22 - 2 628 2022-08-22 21:17:11
65 Chapter II (Then) 247,300 163 - 0 - 0 - 1 - 2 158 2022-08-22 21:15:04
1,464 Face in the Gutter 706,935 456 - 5 - 0 - 20 - 2 461 2022-08-22 21:14:06
86 Hate Everyone 80,835 56 - 1 - 0 - 4 - 0 51 2022-08-22 21:12:30
225 Punch You [PB] 1,179,620 768 - 2 - 0 - 1 - 1 757 2022-08-22 21:09:39
1,168 Futsuu No Uta 1,334,130 867 - 4 - 0 - 22 - 0 863 2022-08-22 21:07:44
106 Bedtime Story [PB] 1,911,050 1,232 - 6 - 0 - 20 - 0 1,238 2022-08-22 21:05:19
1,067 Starry Sky (TANUKI BOOTLEG) 577,875 376 - 1 - 0 - 20 - 0 377 2022-08-22 21:02:43
1,244 Pussy Pump 1,662,190 1,069 - 11 - 1 - 22 - 1 1,078 2022-08-22 21:01:25
578 Celestial Horizon 396,705 260 - 1 - 0 - 5 - 1 255 2022-08-22 20:59:22
1,018 Felix^3 1,051,985 677 - 9 - 0 - 22 - 1 684 2022-08-22 20:58:22
221 driving blare 773,355 500 - 7 - 0 - 21 - 3 503 2022-08-22 20:56:57
1,208 Requiem -Dies irae- 667,965 443 - 3 - 0 - 21 - 0 430 2022-08-22 20:55:24
1,455 Lawn Wake IX 478,620 310 - 0 - 0 - 6 - 1 310 2022-08-22 20:53:41
1,095 Suicide Pact 435,475 289 - 0 - 1 - 21 - 1 283 2022-08-22 20:51:50
163 Personal Discourse 635,995 414 - 3 - 0 - 21 - 1 414 2022-08-22 20:51:00
27 Kababies [PB] 3,135,430 2,746 - 14 - 0 - 2 - 5 1,622 2022-08-22 16:52:52
172 Choprite [Oni] [PB] 2,009,270 1,351 - 4 - 0 - 22 - 3 1,272 2022-08-22 16:47:30
669 Trisection (Cowboys from FFT) v2 235,555 246 - 5 - 2 - 7 - 3 101 2022-08-22 16:44:25
223 Igneous Rock (3-1 Hot Remix) 1,437,055 932 - 1 - 0 - 22 - 0 931 2022-08-22 16:42:48
332 Two can't do it Alone 1,371,955 888 - 5 - 0 - 22 - 0 889 2022-08-22 16:40:16
837 Drive of Unliving Things 832,800 538 - 4 - 0 - 20 - 0 542 2022-08-22 16:34:10
732 Rotary Slicers 1,476,890 995 - 4 - 0 - 24 - 1 936 2022-08-22 16:32:30
351 A FLOWER GARDEN 1,208,615 1,001 - 5 - 0 - 1 - 0 657 2022-08-22 16:30:05
512 Tiger Rag 940,505 668 - 8 - 1 - 23 - 1 578 2022-08-22 16:27:45
514 Schur's Theorem 1,342,605 1,319 - 16 - 1 - 4 - 3 614 2022-08-22 16:26:03
4,489 Winter Wind Etude 599,490 533 - 8 - 0 - 22 - 2 311 2022-08-22 16:24:04
1,879 Intersect Thunderbolt 545,050 354 - 2 - 0 - 20 - 0 356 2022-08-22 15:06:35
66 Chapter II (Then) 188,805 125 - 1 - 0 - 20 - 1 126 2022-08-22 15:05:57
905 Thunder Light 542,635 351 - 3 - 0 - 4 - 0 350 2022-08-22 15:03:51
916 Twister [PB] 1,755,050 1,125 - 14 - 0 - 21 - 2 1,139 2022-08-22 14:58:54
6,257 Bloodmeat [0.85x] 373,455 294 - 5 - 0 - 2 - 0 211 2022-08-22 14:52:03
7,698 Bloodmeat [0.85x] 184,560 145 - 6 - 0 - 22 - 1 110 2022-08-22 14:50:35
199 Entrance [Deemo Cut] 1,544,930 1,004 - 2 - 0 - 22 - 0 999 2022-08-22 14:48:05
152 GLAZ [SR] 1,535,370 998 - 0 - 0 - 21 - 1 993 2022-08-22 14:46:07
2,203 Colorful Course [PB] 1,940,720 1,252 - 6 - 0 - 21 - 1 1,257 2022-08-22 13:44:39
3,505 Rottel-da-station 1,540,030 991 - 8 - 0 - 20 - 1 999 2022-08-18 21:50:49
749 Staring at my Spaceship 1,164,805 754 - 1 - 0 - 7 - 0 752 2022-08-18 21:48:54
181 Suicide Pact [FC] 1,768,110 1,131 - 11 - 1 - 0 - 1 1,143 2022-08-18 21:46:42
1,320 Twinkle Of The Stars 484,080 318 - 0 - 0 - 22 - 0 316 2022-08-18 21:44:39
742 Sonic Vision 689,470 480 - 0 - 0 - 21 - 1 432 2022-08-18 21:43:53
1,630 Distorted God 1,532,545 976 - 17 - 0 - 3 - 0 992 2022-08-18 21:42:39
1,264 Resurrection Spell 1,244,005 855 - 13 - 0 - 22 - 0 777 2022-08-18 21:40:18
41 Life :: Acceleration [FC] [PB] 1,840,415 1,180 - 9 - 0 - 0 - 3 1,189 2022-08-18 17:22:32
130 Love U [Heavy] [PB] 1,401,190 895 - 15 - 1 - 20 - 2 911 2022-08-18 17:19:33
181 Love U [Heavy] 75,675 52 - 1 - 0 - 20 - 0 53 2022-08-18 17:16:21
1,806 Pure Ruby 1,380,530 1,014 - 6 - 0 - 22 - 0 828 2022-08-18 17:15:05
132 Love U [Heavy] 971,805 891 - 14 - 1 - 23 - 1 485 2022-08-18 14:04:27
175 Love U [Heavy] 233,700 152 - 0 - 0 - 6 - 2 152 2022-08-18 14:02:28
89 GOODBOUNCE 991,755 646 - 1 - 0 - 22 - 0 643 2022-08-18 14:00:45
73 Kababies 1,062,700 905 - 4 - 0 - 23 - 1 571 2022-08-18 13:59:29
391 Ani Mevushal 232,495 233 - 3 - 0 - 8 - 0 106 2022-08-18 13:57:32
10,389 Lunar Saturation 252,375 166 - 1 - 0 - 20 - 0 167 2022-08-17 21:55:42
1,201 Resurrection Spell 1,400,460 1,010 - 8 - 0 - 4 - 0 844 2022-08-17 21:51:32
4,440 Summer Time Perfume 783,130 502 - 6 - 0 - 2 - 0 506 2022-08-17 21:48:55
175 Party Starter 715,615 463 - 9 - 0 - 21 - 0 465 2022-08-17 21:47:28
75 Hate Everyone 240,255 192 - 3 - 0 - 7 - 0 136 2022-08-17 21:46:23
2,033 Alive (Pegboard Nerds Remix) [Heavy] 681,950 434 - 8 - 0 - 3 - 1 442 2022-08-17 21:44:58
171 Don Pardo Pimpwagon 607,560 395 - 2 - 0 - 4 - 0 391 2022-08-17 21:38:31
606 Anything 281,560 217 - 6 - 0 - 24 - 0 168 2022-08-17 21:37:36
906 Guitars Still Suck 979,840 633 - 8 - 0 - 21 - 0 636 2022-08-17 21:36:56
35 Redraw the Colorless World [FC] [PB] 2,273,200 1,460 - 8 - 0 - 0 - 0 1,468 2022-08-17 21:35:06
564 Poison AND/OR Affection 563,810 361 - 5 - 1 - 7 - 0 366 2022-08-17 21:31:53
1,118 Fried Eggs In My Ear 615,805 436 - 3 - 0 - 22 - 0 382 2022-08-17 21:30:49
53 Hometown UFO [SR] 997,305 644 - 7 - 0 - 22 - 0 648 2022-08-17 21:28:51
1,143 Lawn Wake IX 1,279,580 822 - 6 - 0 - 7 - 0 828 2022-08-17 21:25:05
883 YATA 1,194,655 769 - 7 - 0 - 20 - 1 776 2022-08-17 21:22:33
12,077 Choprite [Heavy] 190,375 126 - 1 - 0 - 20 - 0 127 2022-08-17 21:14:47
1,826 Schur's Theorem 306,930 202 - 0 - 0 - 7 - 0 198 2022-08-17 21:13:07
327 Pollyanna Rocks Your World [SR] 1,118,745 722 - 4 - 1 - 21 - 0 727 2022-08-17 21:11:53
1,343 Flesvelka 414,300 265 - 4 - 0 - 5 - 0 269 2022-08-17 21:09:47
8,452 STRANGEPROGRAM [Cut] 799,315 519 - 5 - 0 - 21 - 0 519 2022-08-17 21:08:47
678 Staring at my Spaceship 2,509,625 1,619 - 5 - 0 - 20 - 0 1,624 2022-08-17 21:06:58
869 Pokamen Party 1,389,180 897 - 6 - 0 - 22 - 0 901 2022-08-17 21:03:06
978 Suicide Pact 827,665 537 - 3 - 0 - 21 - 0 538 2022-08-17 21:01:00
1,352 Endgame 181,045 112 - 8 - 1 - 9 - 1 120 2022-08-17 20:56:37
961 Amphisbaena 118,650 106 - 3 - 1 - 21 - 1 66 2022-08-17 20:55:32
130 Love U [Heavy] [PB] 1,397,825 897 - 11 - 0 - 21 - 2 908 2022-08-17 20:54:45
528 Exothermic (Overheat Remix) 1,174,800 757 - 6 - 0 - 20 - 0 763 2022-08-17 20:52:26
5,438 A Kidney Stone 81,995 62 - 3 - 0 - 3 - 0 48 2022-08-17 20:50:17
8,705 Necropotence 295,040 291 - 14 - 0 - 6 - 0 133 2022-08-17 20:49:44
920 Suicide Pact 990,645 649 - 3 - 0 - 23 - 0 640 2022-08-16 20:17:07
9,441 Choprite [Heavy] 599,775 390 - 3 - 0 - 21 - 2 391 2022-08-16 20:15:18
345 Rakatakatikatong 614,770 405 - 2 - 0 - 21 - 1 398 2022-08-16 20:12:24
686 Danse de Romani 564,715 365 - 3 - 0 - 6 - 0 365 2022-08-16 20:11:10
1,018 YATA 596,620 392 - 2 - 0 - 21 - 1 387 2022-08-16 20:09:47
115 Wooden Sword 1,859,990 1,344 - 12 - 0 - 21 - 0 1,124 2022-08-16 20:08:22
448 AVALON 1,013,855 654 - 5 - 0 - 20 - 1 659 2022-08-16 20:06:03
65 Redraw the Colorless World 262,915 173 - 1 - 0 - 21 - 0 174 2022-08-16 20:03:14
779 Happy Meal 1,580,880 1,019 - 6 - 0 - 20 - 1 1,025 2022-08-16 20:02:21
1,932 Demon Beast Appearance 179,865 122 - 1 - 0 - 21 - 0 119 2022-08-16 19:59:47
39 Chapter II (Then) [PB] 1,869,420 1,205 - 8 - 0 - 21 - 1 1,211 2022-08-16 19:59:06
62 Sutekina Hakaba de Kurashimashou [Alternative Ver.] [FC] [PB] 1,900,750 1,223 - 4 - 0 - 0 - 0 1,227 2022-08-15 20:20:25
74 Blooddrunk v2 2,183,960 1,411 - 4 - 0 - 23 - 3 1,414 2022-08-15 20:18:23
144 Anywhere But Here 232,390 155 - 0 - 0 - 6 - 0 149 2022-08-15 20:16:07
901 Over The Ocean 650,965 422 - 5 - 0 - 21 - 0 424 2022-08-15 20:15:23
1,258 Distorted God 1,907,570 1,238 - 8 - 0 - 21 - 1 1,231 2022-08-15 20:13:59
417 Disconnected HaZaRD 1,044,190 810 - 8 - 0 - 21 - 0 603 2022-08-15 20:11:37
353 C204 637,035 449 - 1 - 0 - 7 - 1 392 2022-08-15 20:10:05
326 C204 [SR] 1,316,380 850 - 4 - 0 - 20 - 1 854 2022-08-15 19:18:25
2,863 A Kidney Stone 1,335,475 858 - 15 - 0 - 21 - 2 866 2022-08-15 19:15:15
1,560 Face in the Gutter 531,530 342 - 6 - 0 - 20 - 1 348 2022-08-15 19:12:27
7,322 Scythe of 13 975,090 628 - 8 - 0 - 21 - 0 634 2022-08-15 19:11:31
275 dreaming (distorted envy mix) 831,975 542 - 1 - 2 - 21 - 0 540 2022-08-15 19:09:39
269 Destination Of The Heart [FC] 1,539,875 991 - 3 - 0 - 0 - 0 994 2022-08-15 17:54:08
747 Guitars Still Suck 1,568,055 1,013 - 9 - 0 - 21 - 3 1,015 2022-08-15 17:52:00
1,970 Reality 1,137,255 850 - 17 - 0 - 22 - 5 672 2022-08-15 17:50:20
16,426 Reality 211,520 139 - 2 - 2 - 5 - 2 136 2022-08-15 17:48:40
3,967 La Campanella 1,128,620 1,218 - 25 - 5 - 33 - 10 462 2022-08-15 17:47:44
7,761 Grand Galop Chromatique 828,455 897 - 19 - 0 - 26 - 3 338 2022-08-15 17:45:22
3,664 Across Rooftops 1,505,510 974 - 6 - 0 - 22 - 1 975 2022-08-15 17:43:37
1,651 Weapon 324,775 210 - 3 - 0 - 5 - 0 210 2022-08-15 17:41:42
593 Syncopatriarch 1,416,475 913 - 9 - 0 - 23 - 1 919 2022-08-15 17:40:56
12,692 Mario Minor 572,895 373 - 1 - 0 - 21 - 1 374 2022-08-15 17:18:57
1,691 Gotta Catch 'Em All 2,169,715 1,483 - 13 - 0 - 21 - 0 1,357 2022-08-15 17:12:58
81 Live at the Sandopolis [SR] 1,187,265 769 - 3 - 0 - 21 - 0 770 2022-08-15 17:10:17
900 Final Boss 456,950 298 - 0 - 0 - 3 - 1 294 2022-08-15 17:07:54
110 Bedtime Story 1,484,295 959 - 5 - 0 - 21 - 1 962 2022-08-15 17:07:03
3,494 Thrash 1,030,990 669 - 2 - 0 - 21 - 0 669 2022-08-15 17:04:49
49,441 B.B. - Evolution - 21,700 18 - 0 - 0 - 20 - 0 18 2022-08-15 16:28:49
40 Chapter II (Then) 294,445 194 - 1 - 0 - 21 - 1 194 2022-08-15 16:27:23
39 Chapter II (Then) 391,600 255 - 2 - 0 - 20 - 0 257 2022-08-15 16:26:34
1,231 Since 1983 1,765,230 1,268 - 6 - 0 - 22 - 0 1,073 2022-08-15 16:22:17
90 Shut Your Mouth 712,140 461 - 4 - 0 - 21 - 0 464 2022-08-15 16:19:56
1,178 A Crimson Rose and a Gin Tonic (YMCK 8bit Mix) 988,570 641 - 2 - 0 - 21 - 1 642 2022-08-15 16:18:21
105 Masodik Galamb 866,055 687 - 5 - 0 - 23 - 2 494 2022-08-15 16:15:30
347 Hope 4 Hopeful 794,665 517 - 3 - 0 - 21 - 0 516 2022-08-15 16:13:56
1,136 Crow Solace 756,265 627 - 7 - 0 - 21 - 0 416 2022-08-15 16:12:49
1,096 Overdrive [Cranky] 150,280 98 - 2 - 0 - 7 - 0 98 2022-08-15 16:11:16
73 Hate Everyone [PB] 351,900 288 - 6 - 0 - 23 - 1 199 2022-08-15 13:41:40
738 cheerful forest 1,161,435 790 - 5 - 0 - 24 - 0 733 2022-08-15 13:40:49
262 Back 2 Ze Core 522,380 342 - 4 - 0 - 22 - 0 340 2022-08-15 13:38:59
59 Redraw the Colorless World [SR] 1,007,465 652 - 5 - 0 - 21 - 0 654 2022-08-15 13:38:03
1,783 Miss Candy on TV 280,515 204 - 3 - 0 - 21 - 0 174 2022-08-15 13:36:38
31 Chapter II (Then) [SR] 1,734,835 1,205 - 7 - 0 - 22 - 1 1,077 2022-08-15 13:35:26
315 FREEDOM DiVE 736,265 647 - 9 - 0 - 26 - 0 386 2022-08-15 13:31:56
1,323 Blue-Violet [PB] 1,039,400 668 - 8 - 0 - 20 - 0 676 2022-08-15 13:02:08
383 Let's Get Crunk 1,546,310 1,107 - 6 - 0 - 23 - 3 943 2022-08-15 12:59:35
452 Epileptic Crisis [Heavy] 400,155 270 - 2 - 1 - 3 - 1 252 2022-08-15 12:57:08
864 Breakout [Heavy] 1,853,940 1,193 - 12 - 0 - 21 - 0 1,201 2022-08-15 12:53:57
731 Arrogant Cobbler [PB] 2,128,105 1,381 - 5 - 0 - 22 - 0 1,374 2022-08-15 12:51:14
539 Chaoz Japan v2 [SR] 614,210 534 - 20 - 0 - 3 - 3 316 2022-08-15 12:48:15
305 FREEDOM DiVE [PB] 699,355 824 - 14 - 1 - 25 - 0 250 2022-08-15 12:42:26
892 Louder!! Louder!!!! Louder!!!!!! 1,428,175 918 - 9 - 0 - 20 - 0 927 2022-08-14 12:02:39
175 LASTMORN 216,615 146 - 3 - 0 - 21 - 0 142 2022-08-14 12:00:57
262 Please, Don't Give Up 1,046,870 697 - 6 - 0 - 23 - 0 669 2022-08-14 12:00:05
100 Masodik Galamb 1,247,670 803 - 9 - 1 - 21 - 0 810 2022-08-11 19:38:52
810 Chronograph [PB] 1,812,885 1,164 - 9 - 0 - 9 - 0 1,173 2022-08-11 19:36:46
575 Let's Get Crunk 699,740 451 - 8 - 0 - 21 - 0 456 2022-08-11 19:34:23
616 Let's Get Crunk 532,140 347 - 2 - 0 - 4 - 1 342 2022-08-11 19:33:16
6,601 beer(party)tune [SR] 113,150 77 - 0 - 0 - 20 - 0 77 2022-08-11 19:31:49
496 BEER [Is-m] 630,755 650 - 20 - 3 - 27 - 2 276 2022-08-11 19:30:38
833 BEER? FOR BATHING!! [SR] 835,135 542 - 1 - 0 - 20 - 2 543 2022-08-11 19:29:16
3,318 Gaussian Blur 975,480 640 - 12 - 0 - 22 - 0 627 2022-08-11 19:27:06
1,955 A FLOWER GARDEN 1,012,090 668 - 8 - 0 - 21 - 0 649 2022-08-11 19:25:22
389 Wonder World! v2 758,380 490 - 4 - 0 - 20 - 1 494 2022-08-11 19:23:28
208 The earth blew up v2 1,715,990 1,106 - 8 - 0 - 21 - 0 1,112 2022-08-11 19:22:15
750 SpaceLand*TOYBOX 1,184,700 805 - 11 - 1 - 23 - 0 746 2022-08-11 19:12:29
63 Kababies [PB] 2,352,450 1,518 - 11 - 1 - 21 - 1 1,521 2022-08-11 19:10:38
128 Poor Kakarookee 1,117,565 734 - 5 - 0 - 21 - 0 719 2022-08-11 19:07:46
547 grind1 335,575 252 - 15 - 0 - 23 - 1 200 2022-08-11 19:05:36
553 grind1 339,505 245 - 13 - 0 - 22 - 0 208 2022-08-11 19:05:11
1,169 Stately, Wrong 1,494,070 971 - 2 - 0 - 21 - 1 966 2022-08-11 19:04:18
908 YATA 1,113,250 716 - 7 - 1 - 21 - 1 724 2022-08-11 19:01:57
3,389 Church Bells 820,490 539 - 2 - 0 - 21 - 0 530 2022-08-11 19:00:17
104 Cristalisia 1,942,520 1,248 - 7 - 1 - 6 - 0 1,256 2022-08-11 18:58:34
217 Cristalisia 555,255 361 - 1 - 0 - 5 - 1 358 2022-08-11 18:56:21
559 Poison AND/OR Affection 588,705 383 - 1 - 0 - 20 - 1 384 2022-08-11 18:54:31
183 Touhou Judgment in the Sixtieth Year ~ Fate of Sixty Years 303,315 201 - 2 - 1 - 22 - 1 199 2022-08-11 18:51:21
1,149 Internal Cannon 614,005 481 - 1 - 0 - 22 - 0 356 2022-08-11 18:49:28
333 Degenerates [FC] 2,624,875 1,691 - 3 - 0 - 0 - 0 1,694 2022-08-11 17:27:25
15,612 Degenerates 78,450 50 - 3 - 1 - 3 - 0 51 2022-08-11 17:23:38
15,436 Degenerates 74,840 56 - 2 - 0 - 21 - 0 50 2022-08-11 17:23:15
7,993 Eradication 292,905 217 - 5 - 0 - 22 - 0 179 2022-08-11 17:22:12
213 Prisoner 1,677,860 1,168 - 4 - 0 - 2 - 1 1,035 2022-08-11 17:21:13
547 Winter Night's Journey (Through the Storm) 1,400,375 905 - 3 - 0 - 20 - 0 908 2022-08-11 16:56:45
745 Fukyouwa Astral Kai 528,435 339 - 10 - 1 - 22 - 0 346 2022-08-11 16:52:56
681 Guitars Still Suck 1,835,495 1,184 - 10 - 1 - 21 - 0 1,188 2022-08-11 16:37:24
3,004 VS Boss Battle 579,425 377 - 1 - 0 - 20 - 0 378 2022-08-11 16:35:05
2,675 Yaunryu ~Yamikaze~ 1,271,140 820 - 6 - 0 - 21 - 0 825 2022-08-11 16:33:56
50 Hornet [FC] 2,753,505 1,774 - 3 - 0 - 0 - 1 1,777 2022-08-11 16:24:21
233 Gentleman (Areia Remix) 1,290,970 955 - 14 - 0 - 23 - 0 769 2022-08-11 16:21:06
901 Stepfile This 557,855 366 - 5 - 0 - 22 - 0 362 2022-08-11 16:19:27
899 dr1 691,125 467 - 3 - 0 - 21 - 2 440 2022-08-11 16:17:44
744 cheerful forest 1,163,750 757 - 2 - 0 - 23 - 1 754 2022-08-11 16:16:40
1,776 Megalovania 1,456,320 942 - 4 - 0 - 22 - 3 944 2022-08-11 16:13:56
7,467 4 Chord Touhou 802,520 519 - 8 - 0 - 23 - 0 522 2022-08-11 16:12:08
10,091 4 Chord Touhou 325,225 213 - 1 - 0 - 20 - 0 214 2022-08-11 16:01:45
1,275 Colibri 784,090 511 - 2 - 0 - 21 - 0 509 2022-08-11 16:00:25
1,373 Colibri 453,840 295 - 4 - 0 - 21 - 0 297 2022-08-11 15:59:23
272 Gym Leader Battle Music (Hi Tech Remix) 337,695 225 - 1 - 0 - 1 - 1 214 2022-08-11 15:44:17
3,152 Brandish Headless 651,835 428 - 1 - 0 - 22 - 1 423 2022-08-11 15:42:53
1,558 The Rapids 862,595 579 - 1 - 0 - 23 - 0 551 2022-08-11 15:41:50
1,486 You Goddamn Fish 481,220 317 - 0 - 0 - 23 - 0 314 2022-08-11 15:40:06
1,923 i wanna kiss the moon 594,080 384 - 4 - 0 - 20 - 1 388 2022-08-11 15:39:20
1,088 Plasmatextor 2,206,890 1,424 - 8 - 0 - 21 - 0 1,428 2022-08-11 15:38:21
747 sylcmyk's theme 1,181,855 766 - 5 - 0 - 22 - 0 766 2022-08-11 15:35:37
2,308 Heavenly Spores 503,440 328 - 2 - 0 - 21 - 0 329 2022-08-11 12:59:03
108 Bedtime Story [PB] 1,532,070 994 - 3 - 1 - 21 - 0 991 2022-08-11 12:57:47
130 Bedtime Story 223,720 151 - 2 - 0 - 6 - 1 142 2022-08-11 12:55:55
94 Evanescent [SR] 881,605 572 - 3 - 0 - 22 - 0 573 2022-08-11 12:54:37
75 Traveler ~Stand Aloof~ [Heavy] [PB] 1,325,295 1,235 - 5 - 0 - 1 - 1 645 2022-08-11 12:05:47
781 Monstercat Live Performance (3 Year Anniversary Mix) 662,555 429 - 3 - 0 - 20 - 1 432 2022-08-11 11:58:26
972 Arianrhod 901,205 580 - 11 - 0 - 22 - 0 586 2022-08-11 11:57:03
78 GOODBOUNCE [SR] 1,053,755 685 - 3 - 0 - 22 - 0 683 2022-08-11 11:55:20
205 drivin'FTR 428,340 342 - 4 - 0 - 6 - 0 241 2022-08-11 11:53:56
156 Life :: Acceleration 690,845 502 - 1 - 0 - 21 - 1 421 2022-08-11 11:52:11
159 Life :: Acceleration 492,900 322 - 0 - 0 - 20 - 0 322 2022-08-11 11:50:37
4,274 Toxiferous Dystopia 500,335 337 - 3 - 0 - 22 - 1 321 2022-08-11 11:49:21
441 Disconnected HaZaRD 903,040 599 - 5 - 1 - 22 - 1 579 2022-08-11 11:47:02
468 Disconnected HaZaRD 566,715 535 - 7 - 0 - 24 - 1 278 2022-08-11 11:45:53
95 Sonic Vision [FC] 1,830,450 1,176 - 6 - 0 - 0 - 0 1,182 2022-08-11 11:43:59
708 Exciting Hyper Highspeed Star [FC] 2,070,150 1,329 - 8 - 0 - 0 - 0 1,337 2022-08-11 10:06:46
12,353 Exciting Hyper Highspeed Star 909,730 586 - 6 - 0 - 20 - 1 592 2022-08-11 10:04:59
11,631 Exciting Hyper Highspeed Star 954,630 637 - 4 - 0 - 22 - 0 610 2022-08-11 10:04:00
290 Poppin' Shower [FC] 2,009,480 1,290 - 7 - 1 - 0 - 0 1,298 2022-08-11 10:02:26
1,803 Poppin' Shower 415,310 272 - 2 - 0 - 22 - 1 272 2022-08-11 09:59:58
1,998 Poppin' Shower 153,170 102 - 2 - 0 - 8 - 0 99 2022-08-11 09:59:18
1,805 Poppin' Shower 414,540 269 - 4 - 0 - 21 - 0 272 2022-08-11 09:58:24
1,513 Futsuu No Uta 620,955 469 - 3 - 0 - 22 - 0 369 2022-08-11 09:57:14
2,205 Futsuu No Uta 190,475 124 - 3 - 0 - 5 - 0 123 2022-08-11 09:56:06
2,260 Futsuu No Uta 146,115 93 - 3 - 0 - 6 - 0 96 2022-08-11 09:55:38
340 Christmix 2014 1,179,940 758 - 6 - 0 - 5 - 3 763 2022-08-11 09:54:42
38 cat1 cat2 and cat3 [FC] [PB] 2,029,655 1,307 - 3 - 0 - 0 - 1 1,310 2022-08-11 09:46:14
103 Wooden Sword 2,119,950 1,361 - 18 - 0 - 21 - 2 1,373 2022-08-10 22:45:29
38 Bloody Revolution [FC] [PB] 3,749,600 2,401 - 22 - 0 - 0 - 0 2,423 2022-08-10 22:32:07
11,225 B.B. - Evolution - 2,619,690 1,837 - 14 - 0 - 21 - 0 1,612 2022-08-10 22:28:10
1,079 waltz in d-flat op. 64-1 (panic station mix) 526,140 342 - 2 - 0 - 21 - 0 344 2022-08-10 22:23:59
3,140 Epilogue 338,880 221 - 2 - 0 - 20 - 1 223 2022-08-10 22:21:15
1,482 Pussy Pump 1,085,610 945 - 12 - 0 - 24 - 0 570 2022-08-10 22:18:05
994 Obscene Amount of Steam 416,270 281 - 6 - 0 - 3 - 0 261 2022-08-10 22:16:10
2,675 Yaunryu ~Yamikaze~ 1,272,725 821 - 5 - 0 - 20 - 0 826 2022-08-10 22:14:23
1,962 Distorted God 921,425 596 - 3 - 0 - 20 - 0 599 2022-08-10 22:10:39
84 cat1 cat2 and cat3 [PB] 1,810,180 1,159 - 12 - 0 - 5 - 1 1,171 2022-08-10 22:08:25
3,793 Thrash 724,595 475 - 1 - 0 - 3 - 0 464 2022-08-10 22:06:09
1,544 Nix-Tek 418,015 275 - 1 - 0 - 21 - 0 273 2022-08-10 22:05:01
125 Bedtime Story 859,530 551 - 6 - 0 - 7 - 0 557 2022-08-10 22:04:18
63 Kababies [PB] 2,350,490 1,515 - 11 - 1 - 22 - 1 1,521 2022-08-10 16:49:35
1,100 Child Protective Services Theme Song [Oni] 281,485 221 - 9 - 0 - 8 - 3 160 2022-08-10 16:46:42
3,623 Frictional Nevada 1,650,370 1,077 - 9 - 1 - 21 - 0 1,062 2022-08-10 16:44:45
215 Guitars Still Suck [FC] 2,204,350 1,409 - 16 - 0 - 0 - 0 1,425 2022-08-10 16:38:38
84 Shut Your Mouth 1,006,245 653 - 2 - 1 - 21 - 0 653 2022-08-10 16:35:54
90 cat1 cat2 and cat3 1,196,015 773 - 5 - 0 - 21 - 0 776 2022-08-10 16:34:00
89 cat1 cat2 and cat3 [PB] 1,195,350 777 - 2 - 0 - 21 - 2 774 2022-08-09 21:44:41
609 Setsujou! Hyakka Ryouran! [FC] 2,811,105 1,798 - 19 - 0 - 0 - 1 1,817 2022-08-09 20:12:00
66 Hate Everyone [SR] 71,955 50 - 1 - 0 - 22 - 0 51 2022-08-09 20:07:31
1,084 Mahou no Oshigoto 1,650,080 1,067 - 6 - 2 - 21 - 1 1,068 2022-08-09 20:06:39
181 E Jumpstyle 983,575 647 - 1 - 0 - 21 - 2 634 2022-08-09 20:04:55
2,651 Sonic the Hedgehog Dubstep Remix 708,140 462 - 2 - 0 - 21 - 0 460 2022-08-09 20:03:23
358 Sutekina Hakaba de Kurashimashou [Alternative Ver.] 909,025 588 - 4 - 1 - 21 - 1 591 2022-08-09 19:11:05
346 Hope 4 Hopeful 570,335 518 - 1 - 0 - 22 - 1 292 2022-08-09 19:08:19
1,240 Electric Butterfly 1,685,710 1,085 - 8 - 0 - 20 - 2 1,093 2022-08-09 19:07:11
2,523 Electric Butterfly 0 1 - 0 - 0 - 11 - 0 1 2022-08-09 19:05:43
1,157 Shitsubou Choco 832,890 713 - 8 - 0 - 24 - 1 446 2022-08-09 19:05:30
322 FREEDOM DiVE [SR] 630,085 440 - 14 - 1 - 22 - 0 391 2022-08-09 19:04:11
1,129 Candy Crack Curtain Call 438,065 284 - 5 - 0 - 21 - 0 287 2022-08-09 19:03:05
106 Bedtime Story 1,482,355 954 - 9 - 0 - 22 - 0 962 2022-08-04 22:24:56
79 cat1 cat2 and cat3 [PB] 1,094,180 705 - 6 - 0 - 20 - 1 711 2022-08-04 22:19:33
1,210 Requiem -Dies irae- 684,940 441 - 6 - 0 - 20 - 3 447 2022-08-04 16:47:56
1,165 Lawn Wake IX 1,218,245 787 - 7 - 0 - 21 - 1 790 2022-08-04 16:45:52
1,538 Carol of the Bells 1,226,310 822 - 6 - 2 - 21 - 2 779 2022-08-04 16:43:15
1,702 Dance and Zeal 805,000 524 - 1 - 1 - 21 - 1 523 2022-08-04 16:41:30
566 L 424,985 417 - 9 - 0 - 22 - 1 200 2022-08-04 16:11:54
333 Hope 4 Hopeful 1,065,650 680 - 14 - 0 - 20 - 0 694 2022-08-04 15:51:51
1,249 Punch You 585,965 541 - 8 - 1 - 22 - 1 293 2022-08-04 15:50:35
180 E Jumpstyle 975,995 632 - 7 - 0 - 21 - 1 633 2022-08-04 15:49:17
1,308 Dreadnought [Heavy] 637,840 515 - 4 - 0 - 21 - 0 360 2022-08-04 15:44:15
1,734 Dreadnought [Heavy] 56,230 50 - 2 - 0 - 22 - 0 35 2022-08-04 15:43:09
2,445 Alive (Pegboard Nerds Remix) [Heavy] 131,750 85 - 0 - 0 - 0 - 0 85 2022-08-04 15:40:36
232 Resurrection Spell [FC] 2,419,405 1,552 - 10 - 1 - 0 - 0 1,563 2022-08-04 15:28:23
214 Leviathan 743,345 483 - 3 - 0 - 23 - 0 484 2022-08-04 15:24:39
79 cat1 cat2 and cat3 [PB] 1,088,550 703 - 4 - 0 - 20 - 0 707 2022-08-04 15:21:18
1,275 Since 1983 1,816,225 1,169 - 11 - 2 - 22 - 2 1,177 2022-08-03 20:01:15
2,672 Yaunryu ~Yamikaze~ 1,272,200 824 - 2 - 0 - 21 - 2 825 2022-08-03 19:58:59
116 Prequel To The Sequel 44,020 31 - 0 - 0 - 13 - 0 31 2022-08-03 17:39:02
4,378 Piano Etude (Gymnastics) 1,170,580 924 - 9 - 1 - 23 - 1 667 2022-08-03 17:38:16
1,759 G air 746,675 562 - 7 - 0 - 1 - 2 436 2022-08-03 17:36:41
896 New Fluttershy (MONSTER MIX) 534,970 427 - 6 - 0 - 21 - 1 305 2022-08-03 17:35:16
843 Zauberkugel 1,322,045 886 - 2 - 1 - 22 - 2 841 2022-08-03 17:33:38
724 Bubble Bath Aftermath [PB] 2,118,630 1,361 - 12 - 0 - 20 - 1 1,373 2022-08-03 17:31:54
902 Dizzay [SR] 270,315 201 - 1 - 0 - 21 - 0 166 2022-08-03 15:33:34
822 Not Our Tomorrow 780,630 921 - 14 - 0 - 25 - 1 278 2022-08-03 15:32:35
70 Kababies [SR] 945,840 870 - 8 - 0 - 22 - 2 472 2022-08-03 15:30:08
1,274 Eclipse (Luna) 198,420 179 - 4 - 0 - 23 - 0 106 2022-08-03 15:28:12
1,490 Chipscape 495,040 403 - 6 - 0 - 4 - 1 273 2022-08-03 15:27:35
1,781 Chipscape 5,580 4 - 0 - 0 - 2 - 0 4 2022-08-03 15:26:54
1,171 Mermaid Island 899,610 758 - 14 - 0 - 26 - 4 487 2022-08-03 15:02:52
385 Ripoff [PB] 950,610 950 - 11 - 1 - 3 - 2 426 2022-08-03 15:01:28
43 Pervs [PB] 1,168,875 1,139 - 12 - 1 - 3 - 0 540 2022-08-03 14:59:27
205 miko [PB] 1,411,710 1,397 - 18 - 0 - 5 - 2 640 2022-08-03 14:57:10
176 Propane 1,017,150 861 - 10 - 0 - 23 - 1 548 2022-08-03 14:54:18
153 Touhou Judgment in the Sixtieth Year ~ Fate of Sixty Years [SR] 1,480,285 955 - 1 - 0 - 4 - 0 956 2022-08-03 14:51:49
194 R2 [PB] 1,335,090 1,106 - 4 - 0 - 1 - 0 726 2022-08-03 14:49:39
103 Bedtime Story [PB] 1,484,865 959 - 7 - 0 - 21 - 0 962 2022-08-03 14:47:03
115 Bedtime Story [SR] 1,014,425 656 - 3 - 0 - 20 - 0 659 2022-08-03 13:21:11
74 cat1 cat2 and cat3 [SR] 866,625 559 - 5 - 0 - 20 - 0 564 2022-08-03 13:19:25
527 Danse de Romani 1,191,190 768 - 6 - 0 - 22 - 2 774 2022-08-02 20:04:33
330 Ani Mevushal 1,033,590 979 - 7 - 1 - 22 - 1 500 2022-08-02 20:02:20
988 Jammin' 273,000 179 - 4 - 0 - 21 - 2 180 2022-08-02 19:58:25
882 Guitars Suck 889,315 579 - 5 - 0 - 21 - 0 576 2022-08-02 19:54:43
1,744 Intersect Thunderbolt 729,780 491 - 2 - 0 - 22 - 0 466 2022-08-02 19:52:22
906 Spirits 751,355 483 - 7 - 0 - 20 - 1 490 2022-08-02 19:50:27
78 Shut Your Mouth [PB] 2,056,710 1,323 - 7 - 1 - 6 - 3 1,329 2022-08-02 19:48:58
84 Shut Your Mouth 469,440 304 - 4 - 0 - 6 - 0 303 2022-08-02 19:46:19
431 Hajnal [FC] 3,098,015 1,993 - 7 - 0 - 0 - 3 2,000 2022-08-02 17:06:06
948 Mellann 811,680 521 - 9 - 3 - 21 - 0 529 2022-08-02 17:02:20
208 Cristalisia 633,950 413 - 0 - 0 - 20 - 0 413 2022-08-02 16:44:37
289 Does the Microwave Oven Dream of Electric Sheep 2,596,335 1,673 - 6 - 3 - 21 - 6 1,681 2022-08-01 22:50:08
371 Warm Hands In Cold Fog 265,975 174 - 3 - 0 - 5 - 0 171 2022-08-01 22:46:15
230 Back 2 Ze Core 860,700 556 - 4 - 0 - 20 - 0 560 2022-08-01 22:15:43
208 Propane 813,510 613 - 8 - 0 - 22 - 1 481 2022-08-01 22:09:03
991 Jamais Deux 876,645 572 - 7 - 0 - 22 - 3 567 2022-08-01 22:07:04
1,101 Chik Habit 17,050 15 - 0 - 0 - 20 - 0 15 2022-08-01 22:03:44
2,529 Red Wings Over Baron 434,945 281 - 7 - 0 - 21 - 1 285 2022-08-01 22:03:14
59 Hornet [FC] 2,752,955 1,772 - 5 - 0 - 0 - 1 1,777 2022-08-01 21:32:59
803 Guitars Still Suck 1,111,845 877 - 5 - 0 - 22 - 3 635 2022-08-01 21:29:41
531 Salieri's Laughter 579,355 378 - 1 - 0 - 22 - 0 378 2022-08-01 21:27:56
84 Shut Your Mouth 315,305 206 - 3 - 0 - 22 - 0 208 2022-08-01 21:21:37
456 Sutekina Hakaba de Kurashimashou [Alternative Ver.] 358,740 234 - 2 - 0 - 21 - 0 236 2022-08-01 21:19:21
272 As We Suffocate 314,415 240 - 1 - 0 - 6 - 0 184 2022-08-01 21:16:38
1,036 YATA 436,825 285 - 1 - 0 - 20 - 0 286 2022-08-01 21:07:28
1,205 waltz in d-flat op. 64-1 (panic station mix) 223,295 191 - 5 - 0 - 23 - 0 124 2022-08-01 21:00:14
1,289 waltz in d-flat op. 64-1 (panic station mix) 207,360 133 - 5 - 1 - 20 - 1 139 2022-08-01 20:59:47
1,378 Felix^3 300,865 201 - 3 - 0 - 21 - 0 196 2022-08-01 20:59:06
796 Staring at my Spaceship 625,925 404 - 1 - 0 - 5 - 0 405 2022-08-01 20:58:05
4,407 Toxiferous Dystopia 450,230 293 - 6 - 0 - 21 - 3 294 2022-08-01 20:47:10
710 Amphisbaena [SR] 542,350 463 - 6 - 2 - 26 - 0 294 2022-08-01 20:46:06
1,225 Resurrection Spell 1,315,395 931 - 9 - 0 - 23 - 0 808 2022-08-01 20:42:00
2,429 JULIA 747,045 485 - 3 - 0 - 21 - 1 486 2022-08-01 20:38:22
2,126 Distorted God 525,460 346 - 0 - 0 - 22 - 1 342 2022-08-01 20:37:00
2,304 Distorted God 269,495 174 - 0 - 1 - 4 - 1 175 2022-08-01 20:34:53
2,468 Distorted God 75,640 53 - 0 - 0 - 21 - 0 53 2022-08-01 20:34:18
52 Masodik Galamb [PB] 2,984,510 2,841 - 35 - 1 - 2 - 5 1,413 2022-08-01 17:49:43
2,884 Holy Orders 1,502,960 1,352 - 9 - 1 - 23 - 2 764 2022-08-01 17:44:04
1,515 Dance and Zeal 1,207,645 777 - 10 - 1 - 21 - 0 784 2022-08-01 17:41:08
206 Birthright (Blue Stahli Remix) 1,471,930 950 - 7 - 1 - 21 - 2 954 2022-08-01 17:39:49
78 Shut Your Mouth [PB] 1,142,010 746 - 2 - 0 - 22 - 1 738 2022-08-01 17:37:43
973 Requiem -Dies irae- 855,755 785 - 3 - 0 - 22 - 0 430 2022-07-28 17:33:38
381 Een Lijden 979,695 931 - 14 - 1 - 4 - 1 465 2022-07-28 17:32:04
265 YATA 1,206,930 1,097 - 8 - 0 - 2 - 0 602 2022-07-28 17:30:07
296 Bobo 322,935 348 - 12 - 1 - 22 - 0 135 2022-07-28 17:19:58
169 Cristalisia 1,541,215 998 - 3 - 0 - 21 - 0 998 2022-07-28 17:18:27
337 Sutekina Hakaba de Kurashimashou [Alternative Ver.] 1,070,455 689 - 6 - 1 - 20 - 0 696 2022-07-28 17:15:44
117 Anywhere But Here 667,225 432 - 3 - 0 - 20 - 0 435 2022-07-28 16:10:26
325 THE BADDEST 402,340 267 - 0 - 0 - 21 - 0 262 2022-07-28 16:09:27
1,426 Destination Of The Heart 874,805 816 - 3 - 0 - 22 - 0 432 2022-07-28 16:08:47
282 Gentleman (Areia Remix) 1,174,140 759 - 8 - 0 - 21 - 0 761 2022-07-28 16:07:01
913 Obscene Amount of Steam 813,705 573 - 5 - 0 - 22 - 0 504 2022-07-28 15:18:07
490 Return to Fire 1,233,195 801 - 4 - 1 - 21 - 0 798 2022-07-28 15:16:21
934 dr1 544,005 361 - 1 - 0 - 22 - 0 352 2022-07-28 15:14:41
2,925 Midnight Dragon 1,132,690 742 - 5 - 1 - 22 - 1 730 2022-07-28 15:13:45
4,095 Winter Wind Etude 863,465 660 - 23 - 0 - 22 - 2 501 2022-07-28 15:12:12
678 Le carnaval des animaux, Movement no. 14 ''Finale" 705,000 928 - 44 - 2 - 31 - 0 192 2022-07-28 15:07:25
525 floating point (Drumcorps Remix) 115,015 132 - 9 - 0 - 26 - 0 48 2022-07-28 15:05:14
120 Rationalist 621,595 417 - 5 - 0 - 23 - 0 398 2022-07-28 15:04:09
51 Erase Me [SR] 1,409,930 922 - 6 - 0 - 22 - 0 908 2022-07-28 15:02:57
71 Shut Your Mouth [PB] 719,325 475 - 2 - 1 - 21 - 1 464 2022-07-28 15:00:19
685 Stage 1 (Teenage Mutant Ninja Turtles 2) [SR] 605,830 421 - 4 - 0 - 22 - 0 380 2022-07-28 14:55:43
1,668 Tetris [Powerglove] 874,440 568 - 2 - 0 - 21 - 0 568 2022-07-28 14:54:47
1,671 Bloody Tears 1,552,205 1,063 - 5 - 0 - 22 - 0 973 2022-07-28 14:51:23
2,420 Bloody Tears 292,105 190 - 3 - 0 - 20 - 1 193 2022-07-28 12:46:18
7,289 4 Chord Touhou 810,630 558 - 2 - 0 - 22 - 0 510 2022-07-28 12:45:26
169 Party Starter 739,570 502 - 7 - 1 - 21 - 0 468 2022-07-27 20:19:25
2,091 Pure Ruby 1,282,245 828 - 8 - 1 - 11 - 0 828 2022-07-27 20:07:15
392 Balloon Fight [Heavy] [PB] 538,000 396 - 13 - 1 - 27 - 3 325 2022-07-27 16:56:10
607 Balloon Fight [Heavy] 64,620 64 - 2 - 0 - 23 - 0 36 2022-07-27 16:55:33
405 Syncopatriarch 2,784,930 1,781 - 25 - 1 - 21 - 2 1,805 2022-07-27 16:54:58
599 Syncopatriarch 1,258,430 816 - 8 - 0 - 21 - 3 814 2022-07-26 20:23:18
637 Fukyouwa Astral Kai 1,135,845 738 - 16 - 1 - 21 - 0 732 2022-07-26 20:21:47
169 Don Pardo Pimpwagon 443,375 403 - 1 - 0 - 5 - 0 223 2022-07-26 20:20:10
649 Breaka Railway 464,945 450 - 13 - 0 - 23 - 0 221 2022-07-26 20:19:09
739 miko 493,590 318 - 8 - 0 - 21 - 0 323 2022-07-26 20:17:03
282 echoes of wind 410,295 329 - 9 - 0 - 23 - 0 234 2022-07-26 20:15:20
274 Naive Hopelessness 513,080 355 - 6 - 0 - 22 - 0 323 2022-07-26 19:40:28
160 Wooden Sword 328,085 281 - 5 - 0 - 22 - 1 179 2022-07-26 19:38:59
172 Wooden Sword 238,600 153 - 6 - 0 - 20 - 0 159 2022-07-26 19:38:22
98 W-Inda (F-Rz Edit) 270,910 263 - 4 - 0 - 22 - 1 132 2022-07-26 19:37:45
43 Passing You By [FC] [PB] 1,682,200 1,082 - 4 - 0 - 0 - 0 1,086 2022-07-26 19:36:27
78 Alive (Pegboard Nerds Remix) [Full Version] 747,400 491 - 3 - 1 - 21 - 1 483 2022-07-26 19:31:23
587 OTAKU SPEEDVIBE [Oni] 1,707,990 1,377 - 18 - 0 - 1 - 0 946 2022-07-26 19:27:46
1,157 Flesvelka 807,485 518 - 4 - 1 - 5 - 1 523 2022-07-26 19:25:11
520 Final Fantasy Last Battle Festival [FC] 5,650,530 3,634 - 14 - 0 - 0 - 1 3,648 2022-07-26 19:23:04
1,674 Chronograph 899,670 582 - 4 - 0 - 21 - 1 585 2022-07-26 19:12:17
3,657 Jeanie and Caroline 328,945 214 - 1 - 0 - 13 - 0 215 2022-07-26 19:09:56
1,260 Happy Meal 965,375 626 - 1 - 0 - 20 - 0 627 2022-07-26 19:08:54
1,609 Happy Meal 142,290 96 - 0 - 0 - 21 - 0 96 2022-07-26 19:07:04
1,422 Chipscape 775,845 499 - 7 - 0 - 21 - 1 506 2022-07-26 19:04:10
69 Shut Your Mouth [PB] 316,715 209 - 1 - 0 - 21 - 0 208 2022-07-26 18:58:58
2,186 Destination Of The Heart 394,975 258 - 1 - 0 - 20 - 0 259 2022-07-25 22:34:24
1,636 Poppin' Shower 539,785 415 - 6 - 1 - 7 - 0 312 2022-07-25 22:32:29
144 Savior 823,920 762 - 12 - 0 - 24 - 2 409 2022-07-25 22:24:05
52 Anywhere But Here [FC] 2,318,130 1,489 - 8 - 0 - 0 - 1 1,497 2022-07-25 22:22:02
1,416 Demon Beast Appearance 754,805 533 - 5 - 0 - 12 - 0 464 2022-07-25 22:18:54
373 Sutekina Hakaba de Kurashimashou [Alternative Ver.] 790,545 512 - 9 - 0 - 21 - 1 513 2022-07-25 22:17:43
66 Shut Your Mouth [SR] 225,715 147 - 0 - 1 - 7 - 1 147 2022-07-25 22:16:25
634 Gacha Gacha Hertz Figu atto Radio 110,065 125 - 143 - 20 - 121 - 80 40 2022-07-25 16:31:44
593 Gacha Gacha Hertz Figu atto Radio 1,611,625 1,039 - 6 - 1 - 21 - 1 1,045 2022-07-25 16:29:03
251 Please, Don't Give Up 1,136,315 740 - 3 - 0 - 21 - 0 735 2022-07-25 16:24:28
1,440 Blue 553,640 406 - 8 - 0 - 22 - 2 335 2022-07-25 16:21:43
157 LASTMORN 268,295 236 - 5 - 0 - 6 - 1 139 2022-07-25 16:20:09
533 Poison AND/OR Affection 767,195 498 - 3 - 0 - 21 - 1 499 2022-07-21 21:36:43
940 Autumn Insomnia Session 2,090,020 1,346 - 7 - 1 - 20 - 3 1,354 2022-07-21 21:34:19
1,578 Autumn Insomnia Session 428,780 279 - 2 - 0 - 20 - 1 281 2022-07-21 21:28:22
865 Cloak Steppin 863,635 559 - 2 - 3 - 21 - 1 562 2022-07-21 21:24:09
1,169 Plasmatextor 1,505,980 974 - 4 - 0 - 22 - 0 976 2022-07-21 21:21:18
341 Does the Microwave Oven Dream of Electric Sheep 2,061,415 1,360 - 7 - 0 - 21 - 0 1,318 2022-07-21 16:51:07
169 Cristalisia 1,479,390 953 - 4 - 0 - 6 - 0 956 2022-07-21 16:48:58
1,011 YATA 600,925 393 - 1 - 0 - 8 - 1 387 2022-07-21 16:46:49
974 Stately, Wrong 1,988,810 1,282 - 9 - 1 - 22 - 0 1,288 2022-07-21 16:45:13
525 Disconnected Hardkore 677,545 434 - 6 - 1 - 6 - 0 439 2022-07-21 16:41:52
154 theyaremanycolors 41,850 31 - 0 - 0 - 20 - 0 31 2022-07-21 16:40:25
203 Excite Bike [Heavy] 123,930 99 - 4 - 0 - 2 - 0 69 2022-07-21 16:39:19
3,868 The Divine Suicide of K 3,248,325 2,089 - 13 - 0 - 20 - 0 2,102 2022-07-21 16:33:44
938 Not Our Tomorrow 793,500 719 - 8 - 0 - 23 - 1 403 2022-07-21 16:29:00
1,309 Not Our Tomorrow 257,985 169 - 1 - 0 - 4 - 0 166 2022-07-21 16:27:21
481 Salieri's Laughter 692,890 660 - 1 - 1 - 24 - 0 337 2022-07-21 16:26:41
188 Highway Highway DESTINY 287,405 183 - 7 - 0 - 7 - 0 187 2022-07-21 16:24:55
240 Naive Hopelessness [PB] 667,080 635 - 6 - 0 - 22 - 0 323 2022-07-21 16:23:08
138 Poor Kakarookee 130,370 84 - 4 - 0 - 3 - 0 84 2022-07-21 16:20:58
1,195 Electric Butterfly 1,858,515 1,191 - 13 - 2 - 20 - 1 1,206 2022-07-21 16:20:15
762 Monstercat Live Performance (3 Year Anniversary Mix) 772,750 504 - 4 - 0 - 21 - 2 501 2022-07-21 16:16:16
372 Exam Cram [Heavy] 556,955 361 - 2 - 1 - 20 - 0 364 2022-07-20 20:17:52
9,575 Big Blue 567,190 372 - 4 - 0 - 21 - 0 368 2022-07-20 20:16:43
1,275 Phalanx 701,175 496 - 8 - 1 - 22 - 3 433 2022-07-20 20:15:25
138 NOW'S YOUR CHANCE TO BE A [[BIG SHOT]] (gomotion RMX) [SR] 956,580 626 - 4 - 0 - 22 - 0 618 2022-07-20 20:14:15
224 Igneous Rock (3-1 Hot Remix) 905,160 591 - 2 - 2 - 21 - 2 586 2022-07-20 20:11:32
1,960 i wanna kiss the moon 543,145 349 - 6 - 1 - 21 - 0 356 2022-07-20 20:10:21
238 Bowser the Shredder [FC] [PB] 1,887,700 1,208 - 12 - 0 - 0 - 0 1,220 2022-07-20 20:08:32
1,027 Fried Eggs In My Ear 959,790 625 - 2 - 0 - 21 - 0 622 2022-07-20 19:42:06
1,372 Felix^3 215,270 197 - 8 - 0 - 4 - 2 106 2022-07-20 19:40:31
324 Rakatakatikatong 636,255 442 - 6 - 1 - 21 - 2 398 2022-07-20 19:34:42
278 Future Destination 1,315,270 1,229 - 6 - 0 - 1 - 1 638 2022-07-20 19:20:54
375 Distorted God [FC] 2,180,860 1,394 - 15 - 1 - 0 - 1 1,410 2022-07-20 19:18:25
1,247 Resurrection Spell 1,352,480 870 - 8 - 0 - 20 - 1 878 2022-07-20 19:15:56
103 DESIRE DRIVE (LLS HARDCORE REMIX) [Heavy] [FC] [PB] 1,753,775 1,129 - 3 - 0 - 0 - 0 1,132 2022-07-19 20:00:16
18,650 AIM Anthem 291,640 251 - 4 - 0 - 21 - 0 159 2022-07-19 19:58:11
1,002 Rave 1 1,065,455 684 - 10 - 1 - 21 - 2 693 2022-07-19 19:57:13
280 Gentleman (Areia Remix) 910,565 792 - 9 - 0 - 21 - 0 479 2022-07-19 19:55:06
1,568 Tsugihagi Construction 426,580 271 - 7 - 1 - 11 - 2 279 2022-07-19 19:53:40
545 grind1 290,235 234 - 5 - 0 - 22 - 1 167 2022-07-19 19:52:28
5,358 Bloodmeat 714,940 622 - 20 - 0 - 2 - 2 368 2022-07-19 19:51:15
6,301 Bloodmeat [0.9x] 344,860 284 - 14 - 0 - 7 - 1 187 2022-07-19 19:49:51
8,550 Bloodmeat [0.9x] 80,600 56 - 0 - 0 - 20 - 0 56 2022-07-19 19:49:10
6,252 Bloodmeat [0.8x] 351,420 295 - 4 - 0 - 3 - 0 189 2022-07-19 19:48:53
6,394 Bloodmeat 427,825 275 - 9 - 0 - 6 - 2 276 2022-07-19 19:48:03
303 eccentric ghost channel as Poltergeist 194,255 195 - 3 - 0 - 22 - 0 93 2022-07-19 19:47:00
32 CO5M1C R4ILR0AD [FC] [SR] 2,412,675 1,551 - 6 - 1 - 0 - 4 1,558 2022-07-19 19:45:58
1,427 Punch You 680,460 445 - 2 - 0 - 22 - 1 442 2022-07-19 19:43:12
220 Marianas Trench 1,586,310 1,199 - 6 - 0 - 25 - 2 933 2022-07-19 19:42:03
368 Dead Alus [PB] 1,362,085 880 - 7 - 0 - 22 - 1 883 2022-07-19 19:39:43
17,964 Reality 136,060 89 - 2 - 2 - 21 - 2 93 2022-07-19 19:37:03
94 Prequel To The Sequel 1,129,865 838 - 3 - 0 - 6 - 0 670 2022-07-19 19:35:25
98 Masodik Galamb 1,003,750 934 - 8 - 0 - 23 - 1 495 2022-07-19 19:33:06
142 Air Nad Adrian 872,060 616 - 11 - 1 - 22 - 0 537 2022-07-19 19:30:33
64 Lawn Wake IV (Black) v2 [SR] 629,450 447 - 10 - 0 - 23 - 1 388 2022-07-19 19:28:35
1,931 Amen Iraq 198,085 191 - 3 - 0 - 9 - 0 95 2022-07-19 19:27:03
9,075 Eradication 174,800 116 - 2 - 0 - 5 - 0 112 2022-07-19 19:25:13
7,241 Eradication 487,935 319 - 7 - 0 - 24 - 0 318 2022-07-19 19:25:02
738 cheerful forest 1,187,880 772 - 4 - 0 - 22 - 0 769 2022-07-19 19:24:00
866 Obscene Amount of Steam 1,360,905 873 - 13 - 0 - 22 - 0 884 2022-07-19 19:22:04
794 Starry Sky (TANUKI BOOTLEG) 1,637,095 1,053 - 9 - 0 - 21 - 1 1,062 2022-07-19 19:19:35
1,257 Happy Meal 968,540 630 - 2 - 0 - 21 - 0 628 2022-07-19 19:17:27
1,878 Miss Candy on TV 212,350 141 - 0 - 0 - 20 - 0 141 2022-07-19 19:15:49
276 Whiplashed 649,770 426 - 0 - 0 - 21 - 1 422 2022-07-19 19:15:23
325 Sutekina Hakaba de Kurashimashou [Alternative Ver.] 1,232,425 787 - 15 - 0 - 21 - 2 802 2022-07-19 19:13:17
1,319 Venus Fire [SR] 293,085 190 - 3 - 0 - 4 - 0 189 2022-07-19 19:10:11
1,072 Futsuu No Uta 1,519,735 985 - 3 - 0 - 22 - 1 984 2022-07-19 19:08:21
3,315 Thrash 1,402,375 903 - 7 - 0 - 20 - 0 910 2022-07-19 19:05:56
398 Starwolf [FC] 1,788,160 1,149 - 4 - 2 - 0 - 0 1,155 2022-07-19 19:03:53
813 Fried Eggs In My Ear 1,306,340 845 - 4 - 0 - 21 - 0 847 2022-07-18 19:40:46
1,388 Lawn Wake IX 684,615 446 - 3 - 0 - 21 - 0 445 2022-07-18 19:38:25
1,012 YATA 596,640 392 - 2 - 0 - 21 - 0 387 2022-07-18 19:36:58
7,791 Lawn Wake I 1,265,590 820 - 4 - 0 - 21 - 0 820 2022-07-18 19:35:40
358 Hornet 1,128,620 732 - 2 - 0 - 21 - 1 732 2022-07-18 19:32:29
746 Guitars Still Suck 1,561,170 1,012 - 4 - 0 - 21 - 1 1,010 2022-07-18 19:30:30
1,864 Distorted God 1,067,800 691 - 4 - 0 - 1 - 2 687 2022-07-18 19:25:36
489 Aublia 150,590 97 - 2 - 0 - 1 - 0 97 2022-07-18 19:24:05
252 THE BADDEST 1,928,060 1,243 - 6 - 0 - 20 - 2 1,249 2022-07-18 19:22:49
196 breathe [qfeileadh] 1,884,465 1,267 - 15 - 0 - 21 - 0 1,190 2022-07-18 19:20:33
2,210 The Final Hour 1,472,185 953 - 1 - 0 - 20 - 2 954 2022-07-18 19:17:12
319 Heavenly Spores [FC] 2,545,530 1,639 - 4 - 0 - 0 - 1 1,643 2022-07-14 21:41:55
3,787 Across Rooftops 1,357,320 884 - 6 - 0 - 21 - 1 876 2022-07-14 21:39:02
1,848 Press Start 278,700 192 - 6 - 0 - 5 - 0 173 2022-07-14 21:37:12
660 Syncopatriarch 615,175 548 - 7 - 0 - 23 - 1 319 2022-07-14 21:36:29
7,106 B.B. - Revenge - 1,372,385 1,030 - 16 - 1 - 5 - 1 803 2022-07-14 21:34:25
183 Highway Highway DESTINY 439,890 287 - 2 - 0 - 21 - 0 288 2022-07-14 21:32:00
1,882 Reality 1,168,670 858 - 12 - 0 - 21 - 1 700 2022-07-14 21:30:30
15,818 Reality 260,315 175 - 3 - 0 - 12 - 2 167 2022-07-14 21:28:53
668 Stepfile This 1,253,740 813 - 4 - 0 - 21 - 0 812 2022-07-14 21:28:15
1,115 White Walls [Part 1] 2,605,435 1,683 - 23 - 2 - 21 - 7 1,680 2022-07-14 21:25:41
324 Sutekina Hakaba de Kurashimashou [Alternative Ver.] 974,460 796 - 6 - 0 - 3 - 3 536 2022-07-14 21:22:43
797 Hello (BPM) 2021 [SR] 174,500 133 - 4 - 0 - 25 - 0 108 2022-07-14 21:20:10
479 Frictional Nevada [FC] 2,051,530 1,317 - 8 - 0 - 0 - 1 1,325 2022-07-14 21:18:15
1,051 Stately, Wrong 1,871,490 1,205 - 7 - 1 - 20 - 2 1,213 2022-07-14 21:15:52
1,227 Fried Eggs In My Ear 336,930 221 - 2 - 0 - 7 - 0 217 2022-07-14 21:12:44
1,019 waltz in d-flat op. 64-1 (panic station mix) 776,790 505 - 3 - 1 - 22 - 1 505 2022-07-14 21:11:13
1,364 Mourning the Lost 391,855 274 - 3 - 0 - 15 - 1 245 2022-07-14 21:09:43
761 Monstercat Live Performance (3 Year Anniversary Mix) 769,550 505 - 1 - 1 - 21 - 1 498 2022-07-14 21:08:06
129 Divine Silence 357,050 230 - 4 - 0 - 5 - 0 231 2022-07-14 21:06:42
573 Progressive jikuu shoujo! Urashima Taroko-chan! 1,229,270 797 - 5 - 1 - 21 - 0 796 2022-07-14 21:06:06
6,586 going on -spring wind- 77,080 54 - 2 - 0 - 7 - 0 49 2022-07-13 19:30:15
401 Rakatakatikatong 198,090 132 - 0 - 0 - 21 - 0 132 2022-07-13 19:11:16
82 Passing You By 1,224,720 794 - 2 - 0 - 21 - 1 794 2022-07-13 19:09:45
404 Identity [Part 5] 311,970 242 - 0 - 0 - 23 - 0 186 2022-07-13 19:07:06
393 NEO GRAVITY (Cranky Remix) (-RS2018 edit-) [PB] 1,854,010 1,235 - 1 - 1 - 21 - 3 1,181 2022-07-13 19:05:53
754 Sonic Vision 676,965 444 - 1 - 0 - 21 - 0 439 2022-07-13 19:03:52
4,427 Setsujou! Hyakka Ryouran! 1,673,865 1,079 - 7 - 0 - 21 - 0 1,085 2022-07-12 20:00:00
621 Star Gate 286,710 287 - 12 - 0 - 24 - 0 133 2022-07-12 19:58:04
1,227 Blue 1,241,340 805 - 4 - 0 - 21 - 0 804 2022-07-12 19:57:07
320 Destination Of The Heart [FC] 1,539,325 989 - 5 - 0 - 0 - 0 994 2022-07-12 19:54:04
1,247 Resurrection Spell 1,336,580 866 - 4 - 0 - 22 - 0 866 2022-07-12 19:51:31
2,751 Devilz Staircase 260,420 240 - 2 - 0 - 23 - 0 135 2022-07-12 19:49:03
911 Suicide Pact 991,965 641 - 7 - 0 - 21 - 0 644 2022-07-12 19:46:52
957 Happy Meal 1,208,930 942 - 7 - 1 - 23 - 1 696 2022-07-12 19:44:10
1,419 Since 1983 1,262,800 819 - 3 - 1 - 21 - 1 818 2022-07-12 19:40:53
776 T&J "complete ver." [SR] 1,028,515 661 - 9 - 0 - 21 - 0 669 2022-07-12 19:38:06
351 Sutekina Hakaba de Kurashimashou [Alternative Ver.] 908,475 585 - 8 - 1 - 21 - 1 591 2022-07-12 19:35:43
1,578 Dance and Zeal 1,096,265 706 - 9 - 0 - 21 - 0 712 2022-07-12 19:34:35
1,167 Plasmatextor 1,505,685 973 - 5 - 0 - 22 - 1 976 2022-07-12 19:31:21
3,359 Kil Stage 1,460,680 949 - 2 - 0 - 22 - 0 945 2022-07-12 19:28:47
1,831 Alive (Pegboard Nerds Remix) [Heavy] 914,365 587 - 11 - 0 - 21 - 0 595 2022-07-06 19:02:40
676 Quark 1,777,885 1,148 - 7 - 0 - 24 - 0 1,152 2022-07-06 19:00:28
167 Entrance [Deemo Cut] 1,537,610 997 - 4 - 0 - 22 - 1 995 2022-07-06 18:57:52
1,695 Dance and Zeal 812,385 527 - 5 - 0 - 22 - 1 528 2022-07-06 18:50:39
55 Blooddrunk v2 2,837,950 1,830 - 6 - 0 - 20 - 0 1,836 2022-07-06 18:48:31
891 Guitars Still Suck 960,445 662 - 9 - 0 - 23 - 0 601 2022-07-04 17:34:20
967 Guitars Still Suck 608,810 392 - 5 - 1 - 20 - 1 398 2022-07-04 17:33:20
348 Sutekina Hakaba de Kurashimashou [Alternative Ver.] 681,755 594 - 9 - 2 - 21 - 1 359 2022-07-04 17:32:29
458 Sutekina Hakaba de Kurashimashou [Alternative Ver.] 324,950 212 - 3 - 1 - 21 - 1 214 2022-07-04 17:31:29
65 Ants Of The Sky 1,222,390 1,280 - 15 - 1 - 25 - 2 522 2022-07-04 17:30:30
184 E Jumpstyle 765,720 488 - 14 - 0 - 21 - 1 500 2022-06-30 21:49:23
1,965 Distorted God 913,640 589 - 8 - 0 - 21 - 0 594 2022-06-30 21:47:45
1,449 Resurrection Spell 580,015 371 - 9 - 0 - 21 - 0 380 2022-06-30 21:46:08
709 Syncopatriarch 692,695 453 - 0 - 1 - 21 - 0 450 2022-06-30 21:42:46
215 Igneous Rock (3-1 Hot Remix) 1,457,920 939 - 7 - 1 - 21 - 0 946 2022-06-30 21:40:48
989 Guitars Still Suck 481,225 309 - 5 - 0 - 10 - 0 313 2022-06-30 21:38:32
922 Guitars Still Suck 809,460 514 - 18 - 0 - 7 - 1 524 2022-06-30 21:37:48
1,114 Guitars Still Suck 85,185 50 - 7 - 0 - 4 - 0 57 2022-06-30 21:36:43
213 Birthright (Blue Stahli Remix) 1,150,685 739 - 9 - 0 - 20 - 2 748 2022-06-30 21:36:17
460 Sutekina Hakaba de Kurashimashou [Alternative Ver.] 317,040 204 - 5 - 1 - 5 - 2 205 2022-06-30 21:34:02
168 Party Starter 717,245 469 - 3 - 0 - 21 - 1 465 2022-06-30 21:32:09
986 Nous 1,979,450 1,275 - 10 - 0 - 21 - 2 1,282 2022-06-30 21:29:09
148 LASTMORN 327,210 277 - 6 - 0 - 9 - 0 176 2022-06-30 21:26:17
224 Gentleman (Areia Remix) 1,141,345 967 - 11 - 0 - 21 - 1 613 2022-06-29 19:43:38
659 Stepfile This 1,135,780 828 - 8 - 0 - 22 - 0 685 2022-06-29 19:42:04
917 Stepfile This 501,350 324 - 4 - 0 - 3 - 1 323 2022-06-29 19:40:39
17,313 B.B. - Evolution - [1.2x] 1,407,970 1,140 - 22 - 2 - 23 - 3 782 2022-06-29 19:39:22
49,461 B.B. - Evolution - [1.2x] 21,425 17 - 1 - 0 - 20 - 0 18 2022-06-29 19:37:03
14,798 Vertex BETA [1.2x] 1,188,090 1,074 - 16 - 2 - 26 - 3 601 2022-06-29 19:36:05
19,770 Vertex BETA [1.1x] 681,860 521 - 2 - 0 - 4 - 0 396 2022-06-29 19:34:16
880 Final Boss 435,550 285 - 0 - 0 - 20 - 0 285 2022-06-29 19:32:44
1,841 Midnight Dragon 2,034,160 1,305 - 13 - 1 - 20 - 1 1,319 2022-06-29 19:30:42
3,427 Midnight Dragon 1,860 4 - 0 - 0 - 14 - 0 4 2022-06-29 19:28:34
323 Sutekina Hakaba de Kurashimashou [Alternative Ver.] 1,228,170 789 - 11 - 1 - 22 - 2 798 2022-06-29 19:28:12
901 Guitars Still Suck 971,245 628 - 5 - 0 - 21 - 1 631 2022-06-29 19:25:28
1,064 Destination Of The Heart 1,086,840 910 - 6 - 0 - 1 - 0 585 2022-06-29 19:23:13
1,291 Alive (Pegboard Nerds Remix) [Heavy] 1,595,485 1,120 - 7 - 0 - 24 - 0 985 2022-06-29 19:21:34
618 Gacha Gacha Hertz Figu atto Radio 411,510 263 - 4 - 0 - 4 - 0 267 2022-06-29 19:18:21
82 Passing You By 516,645 333 - 3 - 0 - 1 - 1 333 2022-06-29 19:17:23
263 Mellann [FC] 1,756,005 1,124 - 10 - 1 - 0 - 0 1,135 2022-06-29 19:16:10
514 hatsu miku time 805,495 523 - 5 - 0 - 21 - 1 523 2022-06-28 21:27:31
667 Suicide Pact 1,573,295 1,017 - 9 - 0 - 21 - 1 1,018 2022-06-28 21:25:36
585 Poison AND/OR Affection 410,640 273 - 0 - 0 - 21 - 0 267 2022-06-28 21:21:51
1,523 Happy Meal 324,950 212 - 2 - 0 - 20 - 0 214 2022-06-28 21:19:11
1,170 Stately, Wrong 1,491,855 967 - 3 - 0 - 22 - 0 966 2022-06-28 21:17:34
1,827 Church Bells 1,718,810 1,108 - 6 - 0 - 20 - 2 1,114 2022-06-28 21:14:32
1,035 Felix^3 971,750 626 - 6 - 0 - 20 - 0 632 2022-06-28 20:08:48
717 Breaka Railway 386,205 301 - 9 - 0 - 22 - 0 225 2022-06-28 20:07:11
1,207 Lawn Wake IX 917,905 697 - 5 - 0 - 22 - 0 540 2022-06-28 20:06:00
14,308 Piano Etude (Demon Fire) [Heavy] 774,520 868 - 8 - 2 - 23 - 3 302 2022-06-28 20:03:55
151 All Hands 634,300 407 - 7 - 1 - 21 - 1 415 2022-06-28 20:01:55
127 Shanghai Teahouse 488,315 526 - 3 - 0 - 9 - 1 201 2022-06-28 20:00:50
2,675 Yaunryu ~Yamikaze~ 1,270,315 817 - 9 - 0 - 21 - 0 825 2022-06-28 19:40:46
866 Guitars Still Suck 1,150,615 744 - 7 - 0 - 21 - 0 746 2022-06-28 19:35:44
259 THE BADDEST 1,338,540 870 - 2 - 0 - 21 - 0 866 2022-06-28 19:33:27
1,076 Destination Of The Heart 1,401,170 908 - 4 - 0 - 1 - 1 901 2022-06-28 19:31:00
886 Bird Sprite -Awakening of Light- 841,825 543 - 5 - 0 - 20 - 0 548 2022-06-28 19:28:44
1,664 Dance and Zeal 912,230 586 - 10 - 0 - 22 - 0 594 2022-06-28 19:26:35
1,069 Demon Beast Appearance 2,098,175 1,356 - 7 - 0 - 21 - 2 1,357 2022-06-28 19:24:31
1,169 S.E.B. in B.E.D. 915,645 598 - 1 - 0 - 21 - 1 593 2022-06-28 19:20:49
513 Tiger Rag 955,120 621 - 4 - 0 - 21 - 1 619 2022-06-27 20:12:34
359 Sutekina Hakaba de Kurashimashou [Alternative Ver.] 827,440 546 - 7 - 1 - 22 - 1 532 2022-06-27 20:10:50
168 Intersect Thunderbolt [FC] [PB] 2,325,665 1,498 - 3 - 0 - 0 - 3 1,501 2022-06-27 20:09:13
103 Lakes of Flame 290,095 235 - 5 - 0 - 21 - 1 166 2022-06-27 20:06:50
404 Inferno of Fomalhaut 239,560 214 - 14 - 0 - 29 - 0 127 2022-06-27 20:06:02
1,133 Amnolys 852,950 547 - 6 - 0 - 5 - 0 552 2022-06-27 20:05:30
1,317 Amnolys 359,030 263 - 2 - 0 - 7 - 0 216 2022-06-27 20:04:05
404 Hornet 397,490 259 - 2 - 0 - 21 - 0 261 2022-06-23 22:55:24
24 Blooddrunk v2 [FC] [PB] 4,419,065 2,842 - 11 - 0 - 0 - 3 2,853 2022-06-23 22:54:27
6,126 The Divine Suicide of K 1,136,375 786 - 2 - 1 - 21 - 1 710 2022-06-23 22:49:17
1,165 Plasmatextor 1,501,485 967 - 9 - 0 - 22 - 1 974 2022-06-23 22:44:35
1,363 Colibri 460,795 299 - 1 - 0 - 3 - 0 297 2022-06-23 22:39:56
1,363 Colibri 460,520 298 - 2 - 0 - 3 - 0 297 2022-06-23 22:39:18
3,308 Thrash 1,413,280 911 - 5 - 1 - 20 - 0 917 2022-06-23 22:36:51
1,885 i wanna kiss the moon 589,480 384 - 4 - 0 - 22 - 0 384 2022-06-23 22:14:56
736 Monstercat Live Performance (3 Year Anniversary Mix) 941,815 609 - 5 - 0 - 21 - 0 612 2022-06-23 22:12:56
98 Masodik Galamb 928,855 803 - 5 - 0 - 23 - 2 493 2022-06-23 22:10:02
111 My Little Pony Medley [Heavy] [FC] [PB] 1,591,575 1,026 - 1 - 0 - 0 - 0 1,027 2022-06-23 19:39:49
360 Disconnected Hardkore [FC] 1,854,955 1,191 - 7 - 0 - 0 - 1 1,198 2022-06-23 19:37:47
271 THE BADDEST 715,185 464 - 3 - 0 - 22 - 1 466 2022-06-23 19:32:40
1,350 Destination Of The Heart 1,292,765 836 - 9 - 0 - 21 - 0 837 2022-06-23 19:30:31
2,334 Clockwork [Breakbeat Heartbeat] 1,517,170 987 - 14 - 0 - 21 - 1 977 2022-06-23 18:43:42
181 E Jumpstyle 619,840 535 - 4 - 0 - 21 - 0 331 2022-06-23 18:41:26
212 E Jumpstyle 235,325 155 - 1 - 0 - 20 - 0 156 2022-06-23 17:36:49
295 Hope 4 Hopeful 1,065,905 873 - 13 - 0 - 22 - 0 589 2022-06-23 17:36:06
330 Hope 4 Hopeful 729,055 688 - 3 - 0 - 23 - 2 357 2022-06-23 17:34:46
802 Clocked 661,640 432 - 2 - 0 - 21 - 0 430 2022-06-23 17:33:14
160 Party Starter 1,085,890 703 - 5 - 1 - 23 - 3 705 2022-06-23 17:32:09
430 NEO GRAVITY (Cranky Remix) (-RS2018 edit-) 909,710 837 - 8 - 0 - 22 - 1 454 2022-06-23 17:28:55
948 Een Lijden 917,095 648 - 3 - 0 - 23 - 0 567 2022-06-23 16:54:08
353 Sutekina Hakaba de Kurashimashou [Alternative Ver.] 682,050 573 - 5 - 1 - 21 - 1 372 2022-06-23 16:50:50
168 Prisoner 2,258,895 1,454 - 9 - 0 - 20 - 4 1,463 2022-06-23 16:42:04
719 Guitars Still Suck 1,664,505 1,070 - 11 - 0 - 16 - 3 1,078 2022-06-23 16:37:53
63 Prequel To The Sequel 3,224,510 2,081 - 9 - 1 - 21 - 3 2,084 2022-06-23 16:35:43
558 L 608,020 415 - 12 - 0 - 21 - 1 383 2022-06-23 16:30:57
1,204 Destination Of The Heart 1,361,690 881 - 6 - 0 - 21 - 0 882 2022-06-23 16:28:51
1,967 Alive (Pegboard Nerds Remix) [Heavy] 735,110 475 - 4 - 0 - 4 - 0 474 2022-06-23 16:26:20
886 waltz in d-flat op. 64-1 (panic station mix) 1,237,415 898 - 12 - 1 - 22 - 1 747 2022-06-16 19:06:26
475 Schur's Theorem [PB] 1,778,760 1,318 - 20 - 0 - 2 - 1 1,049 2022-06-16 19:03:36
261 eccentric ghost channel as Poltergeist 858,920 555 - 8 - 0 - 21 - 1 558 2022-06-16 19:01:15
72 Ideal Ratio 4-1-2.5 (Viticz Remix) [Heavy] 1,366,790 1,161 - 10 - 0 - 21 - 0 732 2022-06-16 18:59:49
4,471 Toxiferous Dystopia 260,835 273 - 15 - 0 - 24 - 0 114 2022-06-16 18:56:43
467 Punch You [PB] 984,370 748 - 13 - 1 - 2 - 2 570 2022-06-16 18:54:51
153 E Jumpstyle 1,439,355 1,075 - 7 - 0 - 22 - 0 853 2022-06-16 18:52:35
1,638 Resurrection Spell 227,040 158 - 6 - 0 - 21 - 0 145 2022-06-16 18:50:40
1,253 Distorted God 1,304,880 1,235 - 9 - 1 - 22 - 4 630 2022-06-16 18:49:09
2,034 Distorted God 743,320 483 - 2 - 0 - 6 - 1 479 2022-06-16 18:46:57
253 Back 2 Ze Core 492,220 322 - 6 - 0 - 21 - 1 320 2022-06-16 18:44:59
1,318 Felix^3 388,380 249 - 7 - 1 - 21 - 2 256 2022-06-16 18:44:06
1,497 Stately, Wrong 206,140 138 - 2 - 0 - 1 - 0 130 2022-06-16 18:43:26
444 Lust for Blood 1,717,740 1,113 - 4 - 0 - 21 - 0 1,111 2022-06-16 18:42:05
1,694 Dance and Zeal 804,140 520 - 6 - 0 - 21 - 0 523 2022-06-16 18:39:52
1,289 Demon Beast Appearance 1,333,625 859 - 6 - 1 - 21 - 1 866 2022-06-16 18:37:35
1,020 R2 1,094,505 710 - 3 - 0 - 22 - 0 710 2022-06-16 18:34:35
3,146 Holy Orders 1,180,145 767 - 3 - 0 - 21 - 1 764 2022-06-15 17:17:10
20,967 party 4u "holy nite mix" v2 342,625 216 - 11 - 0 - 20 - 0 227 2022-06-15 17:15:43
1,423 Phalanx 350,515 320 - 6 - 1 - 7 - 1 175 2022-06-15 17:14:02
726 Blood of Ganon [PB] 3,515,050 2,268 - 9 - 1 - 22 - 3 2,272 2022-06-15 17:12:59
79 Final Boss [FC] 1,826,975 1,173 - 7 - 0 - 0 - 5 1,180 2022-06-14 22:02:07
1,163 Plasmatextor 1,404,705 968 - 9 - 0 - 23 - 2 877 2022-06-14 21:57:07
1,516 Phalanx 393,450 278 - 4 - 0 - 21 - 2 246 2022-06-14 21:51:47
3,169 Thrash 1,725,945 1,107 - 12 - 1 - 20 - 3 1,120 2022-06-14 21:47:40
3,028 Yaunryu ~Yamikaze~ 846,560 549 - 5 - 1 - 22 - 0 550 2022-06-14 21:44:08
907 Guitars Still Suck 884,190 571 - 6 - 0 - 21 - 0 575 2022-06-14 20:08:27
444 Lust for Blood 1,723,720 1,113 - 4 - 0 - 21 - 1 1,117 2022-06-14 20:06:48
1,627 Dance and Zeal 1,002,925 642 - 11 - 0 - 20 - 0 653 2022-06-14 20:03:33
999 Blue 1,539,985 987 - 12 - 1 - 20 - 1 1,000 2022-06-14 19:47:56
898 Yellow Smile 1,046,940 676 - 6 - 0 - 21 - 0 680 2022-06-14 19:45:41
1,066 Futsuu No Uta 1,527,180 986 - 4 - 0 - 20 - 1 990 2022-06-14 19:43:45
1,826 Alive (Pegboard Nerds Remix) [Heavy] 916,015 593 - 5 - 0 - 21 - 0 595 2022-06-14 19:42:07
357 Identity [Part 5] 364,460 338 - 0 - 0 - 24 - 0 186 2022-06-14 19:39:16
440 Identity [Part 5] 12,400 12 - 0 - 0 - 20 - 0 12 2022-06-14 19:38:22
1,229 BF2014 1,582,540 1,047 - 9 - 1 - 22 - 1 1,011 2022-06-14 19:37:25
85 Prequel To The Sequel 997,650 646 - 2 - 0 - 20 - 0 648 2022-06-03 12:35:39
187 Propane 749,525 650 - 13 - 0 - 21 - 2 395 2022-06-03 12:16:59
1,464 Men & Machines [Redemption] 1,860 4 - 0 - 0 - 14 - 0 4 2022-06-03 12:15:09
2,275 Pure Ruby 718,040 600 - 2 - 0 - 21 - 0 394 2022-06-03 12:05:24
741 Final Boss 767,830 681 - 4 - 0 - 22 - 0 399 2022-06-03 11:57:13
4,313 Thrash 478,840 315 - 4 - 0 - 21 - 0 311 2022-06-03 11:55:29
5,884 Thrash 26,350 21 - 0 - 0 - 20 - 0 21 2022-06-03 11:54:46
4,192 Night and Day 368,625 241 - 1 - 0 - 20 - 0 242 2022-06-02 21:23:05
526 Heavenly Spores 2,166,080 1,630 - 9 - 1 - 3 - 1 1,268 2022-06-02 21:22:04
65 Smoked Turkey Rag [FC] 2,469,245 1,589 - 5 - 0 - 0 - 4 1,594 2022-06-02 21:18:11
1,225 Lawn Wake IX 1,032,950 669 - 9 - 1 - 21 - 1 669 2022-06-02 21:15:42
1,127 White Walls [Part 1] 1,677,385 1,633 - 28 - 1 - 24 - 4 779 2022-06-02 21:13:39
127 Savior 1,659,420 1,157 - 12 - 0 - 23 - 5 1,027 2022-06-02 21:09:42
730 Guitars Still Suck 1,368,080 1,031 - 14 - 0 - 22 - 0 804 2022-06-02 21:07:10
1,705 Demon Beast Appearance 351,325 275 - 2 - 1 - 21 - 1 206 2022-06-02 21:05:10
7,658 Choprite [Heavy] 1,637,725 1,056 - 9 - 0 - 21 - 2 1,061 2022-06-02 21:04:21
70 Passing You By 514,490 331 - 4 - 0 - 2 - 2 332 2022-06-02 21:01:18
735 Altale [Heavy] 1,053,210 735 - 8 - 0 - 4 - 0 648 2022-06-02 21:00:11
823 Mellann 1,491,320 964 - 6 - 0 - 21 - 1 966 2022-06-02 19:48:15
120 hatsu miku time [FC] 1,476,910 943 - 12 - 0 - 0 - 2 955 2022-06-02 19:44:51
651 Danse de Romani 619,850 467 - 2 - 0 - 5 - 0 364 2022-06-02 19:42:48
416 Salieri's Laughter 1,915,840 1,232 - 10 - 0 - 21 - 0 1,242 2022-06-02 19:07:59
788 Thunder Light [PB] 757,025 485 - 9 - 0 - 20 - 0 494 2022-06-02 19:05:35
189 Crystallized Silver 931,240 602 - 6 - 0 - 21 - 0 605 2022-06-02 19:03:53
633 YATA 1,609,415 1,040 - 7 - 0 - 21 - 0 1,042 2022-06-02 19:01:33
227 Back 2 Ze Core 540,115 496 - 3 - 0 - 21 - 0 273 2022-06-02 18:59:25
616 Requiem -Dies irae- 1,221,560 1,069 - 5 - 1 - 22 - 0 639 2022-06-02 18:58:12
1,376 Requiem -Dies irae- 301,700 197 - 2 - 0 - 20 - 0 199 2022-06-02 18:56:30
110 AVALON [FC] [PB] 2,247,575 1,441 - 11 - 0 - 0 - 0 1,452 2022-06-02 18:55:41
1,518 Weapon [SR] 302,195 274 - 5 - 0 - 6 - 1 152 2022-06-02 18:52:20
467 Exothermic (Overheat Remix) 1,467,770 1,073 - 10 - 0 - 23 - 0 882 2022-06-02 18:51:33
309 Once Upon a Time in Transylvania [SR] 763,620 484 - 18 - 0 - 21 - 1 499 2022-06-02 18:48:43
1,070 Blood of Ganon 867,900 559 - 6 - 0 - 20 - 0 565 2022-06-02 18:47:18
1,340 Plasmatextor 652,210 420 - 5 - 1 - 20 - 1 426 2022-06-02 18:45:32
989 Bubble Bath Aftermath [SR] 503,030 320 - 6 - 0 - 2 - 0 326 2022-06-02 18:44:41
197 Igneous Rock (3-1 Hot Remix) 2,042,800 1,309 - 16 - 0 - 21 - 2 1,325 2022-05-31 20:18:16
954 Dandelion Sparkle!! 1,359,215 894 - 5 - 0 - 22 - 2 873 2022-05-31 20:12:45
1,609 Oops 526,625 338 - 7 - 0 - 20 - 0 345 2022-05-31 20:11:10
1,695 Distorted God 1,054,165 924 - 3 - 0 - 22 - 2 552 2022-05-31 20:08:27
795 Grad Erlija 666,225 433 - 1 - 0 - 20 - 0 434 2022-05-31 20:05:47
88 Personal Discourse [PB] 1,603,595 1,062 - 11 - 0 - 21 - 1 1,023 2022-05-31 20:03:40
180 Happy Meal [FC] 1,691,480 1,088 - 4 - 0 - 0 - 1 1,092 2022-05-31 20:01:17
652 YATA 1,213,530 1,030 - 14 - 0 - 22 - 0 650 2022-05-31 19:58:35
325 Ani Mevushal 1,381,620 895 - 3 - 1 - 21 - 0 895 2022-05-31 19:55:07
1,065 Demon Beast Appearance 2,096,910 1,353 - 7 - 1 - 20 - 1 1,357 2022-05-31 19:50:56
7,323 STRANGEPROGRAM [Cut] 1,005,290 734 - 4 - 0 - 21 - 0 607 2022-05-30 19:48:12
977 Bogey at your Six 349,420 227 - 4 - 0 - 21 - 1 230 2022-05-30 19:46:45
372 Epileptic Crisis [Heavy] 711,495 463 - 5 - 0 - 21 - 1 462 2022-05-30 19:45:02
157 Amnolys [FC] [PB] 1,784,930 1,145 - 8 - 0 - 0 - 1 1,153 2022-05-30 19:43:47
296 Rakatakatikatong 689,350 539 - 6 - 2 - 22 - 2 398 2022-05-30 19:27:32
1,213 Stately, Wrong 1,225,905 878 - 3 - 0 - 22 - 0 749 2022-05-30 19:25:45
40 Blooddrunk v2 1,287,980 835 - 2 - 0 - 22 - 0 835 2022-05-30 19:22:50
970 Stately, Wrong 1,996,955 1,282 - 11 - 2 - 20 - 4 1,295 2022-05-27 20:20:10